GFSSE_con_mlcape_060.txt.gz
CAPE
195 540 946 1080 803 705 383 238 81 29 49 430 153 339 742 854 892 987 1011 1190 1013 977 1331 1340 1245 1172 1151 936 1059 1036 1061 1145 1017 845 672 604 395 243 107 58 12 0 88
238 587 928 1168 1149 666 431 212 75 12 0 8 96 196 255 455 935 947 1034 984 1224 1121 1363 1256 1356 1337 1274 1177 1349 1248 1147 841 780 656 658 623 339 319 150 73 2 1 0
53 567 1046 619 1250 882 436 208 70 24 0 0 0 38 272 33 310 671 605 770 958 1125 1248 1275 1213 1271 1337 1442 1376 1177 1012 1028 887 706 776 662 494 277 244 111 1 36 6
4 759 1114 723 1007 842 271 118 149 49 87 0 0 0 54 81 45 154 306 129 215 628 1058 1163 1194 1172 1227 1184 1141 1068 954 922 899 801 580 646 638 789 468 155 17 138 381
42 835 1193 640 686 614 115 254 306 327 151 0 0 0 0 19 13 8 49 6 67 339 464 801 1133 1113 1093 1056 892 868 1006 755 899 780 386 347 706 755 449 55 0 3 194
11 548 741 637 989 402 202 90 337 245 0 0 0 0 0 0 0 0 0 0 0 0 92 166 588 1099 1010 998 1049 815 933 416 697 647 238 401 475 826 519 296 91 0 1
17 259 692 1258 776 589 443 317 360 344 134 0 0 0 0 0 0 0 0 0 0 0 0 0 8 683 1115 1034 1007 819 699 269 256 517 216 186 311 577 674 534 380 83 11
16 257 693 795 738 309 105 204 197 479 333 35 0 0 0 0 0 0 0 0 0 0 0 0 0 2 402 789 892 773 687 373 7 139 336 256 379 458 479 654 664 369 38
290 434 452 616 430 424 151 231 208 313 462 433 376 238 86 0 0 0 0 0 0 0 0 0 0 0 14 259 427 869 764 535 64 11 242 144 151 319 483 295 528 687 407
0 0 310 478 421 256 381 545 528 516 483 502 433 507 453 98 180 203 125 13 31 75 49 0 0 0 0 0 43 253 718 497 0 5 33 118 99 392 474 263 240 458 758
0 0 134 364 445 125 235 267 124 34 0 0 0 0 0 0 1 0 165 278 411 338 377 121 3 0 0 0 0 0 7 30 28 0 0 2 158 431 668 517 298 321 477
0 1 7 19 16 0 0 0 0 0 0 0 0 0 0 0 0 0 0 0 9 2 0 0 0 0 0 0 0 0 0 0 0 0 0 0 4 516 763 683 469 270 324
0 0 0 0 0 0 0 0 0 0 0 0 0 0 0 0 0 0 0 0 0 0 0 0 0 0 0 0 0 0 0 0 0 0 0 0 0 185 802 653 463 235 235
0 0 0 0 0 0 0 0 0 0 0 0 0 0 0 0 0 0 0 0 0 0 0 0 0 0 0 0 0 0 0 0 0 0 0 0 0 30 710 817 675 518 334
0 0 0 0 0 0 0 0 0 0 0 0 0 0 0 0 0 0 0 0 0 0 0 0 0 0 0 0 0 0 0 0 0 0 0 0 0 0 0 449 627 719 632
0 0 0 0 0 0 0 0 0 0 0 0 0 0 0 0 0 0 0 0 0 0 0 0 0 0 0 0 0 0 0 0 0 0 0 0 0 0 0 0 545 642 467
0 0 0 0 0 0 0 0 0 0 0 0 0 0 0 0 0 0 0 0 0 0 0 0 0 0 0 0 0 0 0 0 0 0 0 0 0 0 0 0 1 533 372
0 0 0 0 0 0 0 0 0 0 0 0 0 0 0 0 0 0 0 0 0 0 0 0 0 0 0 0 0 0 0 0 0 0 0 0 0 0 0 0 0 0 353
0 0 0 0 0 0 0 0 0 0 0 0 0 0 0 0 0 0 0 0 0 0 0 0 0 0 0 0 0 0 0 0 0 0 0 0 0 0 0 0 0 0 372
0 0 0 0 0 0 0 0 0 0 0 0 0 0 0 0 0 0 0 0 0 0 0 0 0 0 0 0 0 0 0 0 0 0 0 0 0 0 0 0 0 0 0
0 0 0 0 0 0 0 0 0 0 0 0 0 0 0 0 0 0 0 0 0 0 0 0 0 0 0 0 0 0 0 0 0 0 0 0 0 0 0 0 0 0 0
0 0 0 0 0 0 0 0 0 0 0 0 0 0 0 0 0 0 0 0 0 0 0 0 0 0 0 0 0 0 0 0 0 0 0 0 0 0 0 0 0 0 0
0 0 0 0 0 0 0 0 0 0 0 0 0 0 0 0 0 0 0 0 0 0 0 0 0 0 0 0 0 0 0 0 0 0 0 0 0 0 0 0 0 0 0
0 0 0 0 0 0 0 0 0 0 0 0 0 0 0 0 0 0 0 0 0 0 0 0 0 0 0 0 0 0 0 0 0 0 0 0 0 0 0 0 0 0 0
0 0 0 0 0 0 0 0 0 0 0 0 0 0 0 0 0 0 0 0 0 0 0 0 0 0 0 0 0 0 0 0 0 0 0 0 0 0 0 0 0 0 0
0 0 0 0 0 0 0 0 0 0 0 0 0 0 0 0 0 0 0 0 0 0 0 0 0 0 0 0 0 0 0 0 0 0 0 0 0 0 0 0 0 0 0

GFSSE_con_mlcape_063.txt.gz
CAPE
149 633 765 890 642 426 282 119 23 0 163 317 139 428 719 826 954 896 984 1010 919 1218 1209 1252 1252 1198 960 1263 1061 1093 980 908 817 756 612 353 320 188 102 12 0 2 188
227 654 917 1029 970 316 173 67 1 0 0 8 33 212 69 593 751 771 819 969 1123 1247 1128 1110 1260 1258 1195 1428 1192 1063 942 874 763 741 630 411 264 316 164 23 75 0 7
327 820 769 818 930 640 235 85 1 0 0 0 0 91 65 44 330 391 200 340 729 1021 1051 1138 1093 1089 1394 1327 1201 1185 1167 1054 824 892 746 756 580 398 212 41 248 405 0
188 959 723 847 628 511 156 136 35 123 0 0 0 0 11 1 0 27 60 21 122 465 695 952 1039 1060 1096 1057 995 949 1034 984 856 547 565 537 599 577 223 75 75 185 137
202 1024 961 878 676 407 154 175 267 106 0 0 0 0 0 0 0 0 0 0 0 134 276 521 923 971 1004 1019 963 931 984 710 862 591 521 719 693 487 397 70 3 43 233
290 1069 811 859 800 386 67 138 149 6 0 0 0 0 0 0 0 0 0 0 0 0 0 1 242 811 967 1003 763 796 709 332 621 868 435 593 683 571 523 355 78 2 49
278 622 548 1167 760 467 226 153 187 151 13 0 0 0 0 0 0 0 0 0 0 0 0 0 0 154 614 913 863 851 644 177 450 852 506 461 607 590 558 381 418 86 40
140 312 929 742 748 367 326 163 344 475 115 23 8 0 0 0 0 0 0 0 0 0 0 0 0 0 38 488 690 866 644 396 169 187 670 581 293 531 485 425 455 347 65
259 474 853 860 680 302 179 328 234 273 511 490 476 388 313 323 71 37 77 22 0 13 5 0 0 0 0 4 157 433 771 397 261 182 410 499 142 360 463 232 244 471 435
3 8 595 614 369 226 259 260 337 393 78 162 62 53 0 2 76 259 184 374 522 524 426 125 25 22 0 0 0 0 43 213 277 3 119 292 215 295 601 284 157 263 591
0 13 429 376 150 269 150 11 0 0 0 0 0 0 0 0 0 0 0 5 14 9 10 0 0 0 0 0 0 0 0 0 0 14 0 0 1 193 562 684 366 245 321
4 25 74 32 27 16 0 0 0 0 0 0 0 0 0 0 0 0 0 0 0 0 0 0 0 0 0 0 0 0 0 0 0 0 0 0 0 0 575 819 412 277 347
0 0 3 2 0 0 0 0 0 0 0 0 0 0 0 0 0 0 0 0 0 0 0 0 0 0 0 0 0 0 0 0 0 0 0 0 0 0 94 689 515 241 223
0 0 0 0 0 0 0 0 0 0 0 0 0 0 0 0 0 0 0 0 0 0 0 0 0 0 0 0 0 0 0 0 0 0 0 0 0 0 0 342 875 531 491
0 0 0 0 0 0 0 0 0 0 0 0 0 0 0 0 0 0 0 0 0 0 0 0 0 0 0 0 0 0 0 0 0 0 0 0 0 0 0 0 7 503 616
0 0 0 0 0 0 0 0 0 0 0 0 0 0 0 0 0 0 0 0 0 0 0 0 0 0 0 0 0 0 0 0 0 0 0 0 0 0 0 0 0 0 418
0 0 0 0 0 0 0 0 0 0 0 0 0 0 0 0 0 0 0 0 0 0 0 0 0 0 0 0 0 0 0 0 0 0 0 0 0 0 0 0 0 0 0
0 0 0 0 0 0 0 0 0 0 0 0 0 0 0 0 0 0 0 0 0 0 0 0 0 0 0 0 0 0 0 0 0 0 0 0 0 0 0 0 0 0 0
0 0 0 0 0 0 0 0 0 0 0 0 0 0 0 0 0 0 0 0 0 0 0 0 0 0 0 0 0 0 0 0 0 0 0 0 0 0 0 0 0 0 0
0 0 0 0 0 0 0 0 0 0 0 0 0 0 0 0 0 0 0 0 0 0 0 0 0 0 0 0 0 0 0 0 0 0 0 0 0 0 0 0 0 0 0
0 0 0 0 0 0 0 0 0 0 0 0 0 0 0 0 0 0 0 0 0 0 0 0 0 0 0 0 0 0 0 0 0 0 0 0 0 0 0 0 0 0 0
0 0 0 0 0 0 0 0 0 0 0 0 0 0 0 0 0 0 0 0 0 0 0 0 0 0 0 0 0 0 0 0 0 0 0 0 0 0 0 0 0 0 0
0 0 0 0 0 0 0 0 0 0 0 0 0 0 0 0 0 0 0 0 0 0 0 0 0 0 0 0 0 0 0 0 0 0 0 0 0 0 0 0 0 0 0
0 0 0 0 0 0 0 0 0 0 0 0 0 0 0 0 0 0 0 0 0 0 0 0 0 0 0 0 0 0 0 0 0 0 0 0 0 0 0 0 0 0 0
0 0 0 0 0 0 0 0 0 0 0 0 0 0 0 0 0 0 0 0 0 0 0 0 0 0 0 0 0 0 0 0 0 0 0 0 0 0 0 0 0 0 0
0 0 0 0 0 0 0 0 0 0 0 0 0 0 0 0 0 0 0 0 0 0 0 0 0 0 0 0 0 0 0 0 0 0 0 0 0 0 0 0 0 0 0

GFSSE_con_mlcape_066.txt.gz
CAPE
280 320 722 631 795 357 197 8 0 86 191 87 297 386 794 905 881 927 947 1114 1148 1115 1159 1057 1108 1139 1220 1304 1143 1019 928 887 848 666 353 322 323 153 147 198 0 147 736
80 92 675 702 670 99 114 5 0 0 0 0 137 58 241 603 369 363 553 903 1048 992 1006 1053 1165 1143 1329 1213 1255 1120 1113 930 948 699 703 499 318 191 115 413 244 6 483
0 65 254 538 843 398 141 31 0 0 0 0 0 40 15 18 59 161 77 301 723 785 1040 1122 1085 1091 1184 1231 1157 1085 1091 1041 914 571 438 582 373 278 115 212 187 125 240
0 16 7 495 709 226 130 98 185 7 0 0 0 0 0 0 0 0 0 0 89 341 508 904 936 1057 1035 1025 1037 1135 913 943 708 380 83 47 47 254 158 71 99 435 540
0 6 188 823 697 261 159 196 205 0 0 0 0 0 0 0 0 0 0 0 0 0 22 207 781 933 964 1074 851 1037 687 845 646 497 345 314 126 249 261 98 0 54 349
0 56 356 793 780 230 126 244 78 0 0 0 0 0 0 0 0 0 0 0 0 0 0 0 2 410 832 882 1045 941 704 274 694 596 453 387 448 469 444 293 120 42 143
9 41 25 1024 746 372 241 298 286 126 0 0 0 0 0 0 0 0 0 0 0 0 0 0 0 0 200 566 868 926 731 344 286 597 493 426 440 646 588 348 283 95 60
6 71 171 744 774 487 455 265 433 307 165 128 57 33 53 0 0 3 0 0 0 0 0 0 0 0 0 91 358 659 777 351 457 382 442 484 292 479 645 334 305 261 75
8 264 573 319 410 285 381 419 462 458 446 465 498 407 239 394 404 302 114 284 407 497 241 55 26 9 0 0 0 49 298 432 355 272 225 96 284 265 583 478 194 347 427
93 190 645 472 383 371 490 292 370 121 101 21 0 0 0 1 0 0 140 83 8 54 72 1 0 0 0 0 0 0 0 0 39 118 2 117 70 325 643 807 352 190 367
17 96 561 581 575 667 88 12 0 0 0 0 0 0 0 0 0 0 0 0 0 0 0 0 0 0 0 0 0 0 0 0 0 0 0 0 0 12 201 732 921 276 269
133 345 557 521 478 181 0 0 0 0 0 0 0 0 0 0 0 0 0 0 0 0 0 0 0 0 0 0 0 0 0 0 0 0 0 0 0 0 7 269 782 640 273
62 68 177 50 72 6 0 0 0 0 0 0 0 0 0 0 0 0 0 0 0 0 0 0 0 0 0 0 0 0 0 0 0 0 0 0 0 0 0 22 615 642 537
0 0 0 0 0 0 0 0 0 0 0 0 0 0 0 0 0 0 0 0 0 0 0 0 0 0 0 0 0 0 0 0 0 0 0 0 0 0 0 0 0 730 688
0 0 0 0 0 0 0 0 0 0 0 0 0 0 0 0 0 0 0 0 0 0 0 0 0 0 0 0 0 0 0 0 0 0 0 0 0 0 0 0 0 0 67
0 0 0 0 0 0 0 0 0 0 0 0 0 0 0 0 0 0 0 0 0 0 0 0 0 0 0 0 0 0 0 0 0 0 0 0 0 0 0 0 0 0 0
0 0 0 0 0 0 0 0 0 0 0 0 0 0 0 0 0 0 0 0 0 0 0 0 0 0 0 0 0 0 0 0 0 0 0 0 0 0 0 0 0 0 0
0 0 0 0 0 0 0 0 0 0 0 0 0 0 0 0 0 0 0 0 0 0 0 0 0 0 0 0 0 0 0 0 0 0 0 0 0 0 0 0 0 0 0
0 0 0 0 0 0 0 0 0 0 0 0 0 0 0 0 0 0 0 0 0 0 0 0 0 0 0 0 0 0 0 0 0 0 0 0 0 0 0 0 0 0 0
0 0 0 0 0 0 0 0 0 0 0 0 0 0 0 0 0 0 0 0 0 0 0 0 0 0 0 0 0 0 0 0 0 0 0 0 0 0 0 0 0 0 0
0 0 0 0 0 0 0 0 0 0 0 0 0 0 0 0 0 0 0 0 0 0 0 0 0 0 0 0 0 0 0 0 0 0 0 0 0 0 0 0 0 0 0
0 0 0 0 0 0 0 0 0 0 0 0 0 0 0 0 0 0 0 0 0 0 0 0 0 0 0 0 0 0 0 0 0 0 0 0 0 0 0 0 0 0 0
0 0 0 0 0 0 0 0 0 0 0 0 0 0 0 0 0 0 0 0 0 0 0 0 0 0 0 0 0 0 0 0 0 0 0 0 0 0 0 0 0 0 0
0 0 0 0 0 0 0 0 0 0 0 0 0 0 0 0 0 0 0 0 0 0 0 0 0 0 0 0 0 0 0 0 0 0 0 0 0 0 0 0 0 0 0
0 0 0 0 0 0 0 0 0 0 0 0 0 0 0 0 0 0 0 0 0 0 0 0 0 0 0 0 0 0 0 0 0 0 0 0 0 0 0 0 0 0 0
0 0 0 0 0 0 0 0 0 0 0 0 0 0 0 0 0 0 0 0 0 0 0 0 0 0 0 0 0 0 0 0 0 0 0 0 0 0 0 0 0 0 0

GFSSE_con_mlcape_069.txt.gz
CAPE
0 232 557 576 668 292 1 0 0 14 8 180 187 549 703 547 594 739 846 1089 966 970 1004 1139 1108 1114 1172 1217 1017 933 823 800 749 645 474 173 196 122 282 5 36 709 912
0 7 818 803 370 212 10 0 0 0 0 24 67 61 196 191 96 227 518 844 922 904 910 976 1073 1200 1080 1209 1050 1027 947 756 409 659 751 377 156 159 202 220 274 536 770
0 0 448 860 601 194 28 1 1 0 0 0 0 0 0 0 2 0 0 247 583 674 922 973 1009 966 1035 1031 1019 1063 956 795 307 358 490 305 110 143 107 124 560 575 212
0 12 17 430 289 99 106 170 26 0 0 0 0 0 0 0 0 0 0 0 27 83 308 750 916 949 1006 955 965 1057 779 870 319 391 119 58 66 235 66 36 65 413 57
1 8 263 520 339 153 92 202 0 0 0 0 0 0 0 0 0 0 0 0 0 0 0 15 429 853 897 916 947 980 541 388 683 601 326 365 357 345 252 101 0 102 155
2 23 256 889 361 186 255 82 46 0 0 0 0 0 0 0 0 0 0 0 0 0 0 0 0 62 471 776 985 963 760 314 314 319 112 124 302 475 418 215 172 88 144
28 7 11 1029 501 232 196 361 177 30 0 0 0 0 0 0 0 0 0 0 0 0 0 0 0 0 41 186 585 902 741 354 488 68 115 43 347 608 592 251 186 115 80
26 57 76 722 566 382 224 495 478 400 381 271 195 388 195 0 33 119 94 148 260 202 46 2 0 0 0 0 60 277 562 249 313 64 10 154 300 261 682 375 177 230 90
44 58 106 246 301 461 462 456 560 524 527 541 427 243 382 327 295 312 321 164 217 378 183 20 0 0 0 0 0 0 0 0 5 2 0 375 271 329 750 877 254 169 278
51 76 252 362 264 386 504 426 247 85 0 16 0 0 2 0 0 0 0 0 2 0 0 0 0 0 0 0 0 0 0 0 0 0 1 63 0 107 434 592 981 288 229
63 67 260 230 316 546 89 0 0 0 0 0 0 0 0 0 0 0 0 0 0 0 0 0 0 0 0 0 0 0 0 0 0 0 0 0 0 0 0 202 619 875 385
62 77 303 418 435 115 0 0 0 0 0 0 0 0 0 0 0 0 0 0 0 0 0 0 0 0 0 0 0 0 0 0 0 0 0 0 0 0 0 0 283 831 749
73 130 145 126 245 7 0 0 0 0 0 0 0 0 0 0 0 0 0 0 0 0 0 0 0 0 0 0 0 0 0 0 0 0 4 0 0 0 0 0 0 379 864
173 79 60 61 49 0 0 0 0 0 0 0 0 0 0 0 0 0 0 0 0 0 0 0 0 0 0 0 0 0 0 0 0 0 0 0 0 0 0 0 0 0 264
31 1 0 0 0 0 0 0 0 0 0 0 0 0 0 0 0 0 0 0 0 0 0 0 0 0 0 0 0 0 0 0 0 0 0 0 0 0 0 0 0 0 0
0 0 0 0 0 0 0 0 0 0 0 0 0 0 0 0 0 0 0 0 0 0 0 0 0 0 0 0 0 0 0 0 0 0 0 0 0 0 0 0 0 0 0
0 0 0 0 0 0 0 0 0 0 0 0 0 0 0 0 0 0 0 0 0 0 0 0 0 0 0 0 0 0 0 0 0 0 0 0 0 0 0 0 0 0 0
0 0 0 0 0 0 0 0 0 0 0 0 0 0 0 0 0 0 0 0 0 0 0 0 0 0 0 0 0 0 0 0 0 0 0 0 0 0 0 0 0 0 0
0 0 0 0 0 0 0 0 0 0 0 0 0 0 0 0 0 0 0 0 0 0 0 0 0 0 0 0 0 0 0 0 0 0 0 0 0 0 0 0 0 0 0
0 0 0 0 0 0 0 0 0 0 0 0 0 0 0 0 0 0 0 0 0 0 0 0 0 0 0 0 0 0 0 0 0 0 0 0 0 0 0 0 0 0 0
0 0 0 0 0 0 0 0 0 0 0 0 0 0 0 0 0 0 0 0 0 0 0 0 0 0 0 0 0 0 0 0 0 0 0 0 0 0 0 0 0 0 0
0 0 0 0 0 0 0 0 0 0 0 0 0 0 0 0 0 0 0 0 0 0 0 0 0 0 0 0 0 0 0 0 0 0 0 0 0 0 0 0 0 0 0
0 0 0 0 0 0 0 0 0 0 0 0 0 0 0 0 0 0 0 0 0 0 0 0 0 0 0 0 0 0 0 0 0 0 0 0 0 0 0 0 0 0 0
0 0 0 0 0 0 0 0 0 0 0 0 0 0 0 0 0 0 0 0 0 0 0 0 0 0 0 0 0 0 0 0 0 0 0 0 0 0 0 0 0 0 0
0 0 0 0 0 0 0 0 0 0 0 0 0 0 0 0 0 0 0 0 0 0 0 0 0 0 0 0 0 0 0 0 0 0 0 0 0 0 0 0 0 0 0
0 0 0 0 0 0 0 0 0 0 0 0 0 0 0 0 0 0 0 0 0 0 0 0 0 0 0 0 0 0 0 0 0 0 0 0 0 0 0 0 0 0 0

GFSSE_con_mlcape_072.txt.gz
CAPE
270 263 535 800 484 8 0 0 0 0 22 58 172 449 225 97 284 628 764 829 824 886 867 964 876 945 916 814 878 743 523 649 825 615 144 2 90 72 218 449 666 742 959
62 440 671 643 376 6 0 0 0 0 0 2 1 4 5 1 1 8 395 636 762 880 872 872 905 938 892 791 934 828 404 314 475 610 356 41 18 79 93 777 382 501 854
48 384 810 673 215 4 1 1 0 0 0 0 0 0 0 0 0 0 0 90 217 389 699 823 844 856 837 886 1000 690 583 281 391 430 330 101 70 2 33 125 477 79 670
1 200 474 431 82 69 82 9 0 0 0 0 0 0 0 0 0 0 0 0 0 0 33 468 786 817 762 788 907 701 327 455 582 502 21 258 186 141 12 0 135 28 213
224 296 504 314 88 16 120 0 0 0 0 0 0 0 0 0 0 0 0 0 0 0 0 0 70 478 643 827 900 803 562 554 390 416 147 97 122 400 149 107 39 135 127
88 134 636 399 213 132 29 27 1 0 0 0 0 0 0 0 0 0 0 0 0 0 0 0 0 0 61 107 799 775 350 313 364 231 246 264 103 522 322 201 121 78 178
10 99 862 498 154 152 286 135 5 5 0 3 0 0 0 1 4 5 3 35 83 15 2 1 0 0 0 0 152 414 408 87 153 170 205 277 245 461 676 266 263 130 128
1 141 565 529 307 210 517 486 484 486 372 320 391 336 101 144 232 196 331 345 362 311 54 3 1 0 0 0 0 0 0 0 0 13 178 289 306 500 733 519 249 317 169
57 64 142 280 300 448 525 625 508 470 419 306 228 321 246 70 38 30 15 10 3 4 0 0 0 0 0 0 0 0 0 0 0 0 16 131 153 356 645 746 614 234 354
45 129 208 281 439 313 547 419 174 56 50 6 14 7 0 0 0 0 0 0 0 0 0 0 0 0 0 0 0 0 0 0 0 0 0 0 0 0 40 355 653 676 293
50 291 177 196 188 187 80 35 16 0 0 0 0 0 8 0 0 0 0 0 0 0 0 0 0 0 0 0 0 0 0 0 0 0 0 0 0 0 0 3 239 795 705
53 276 152 148 225 61 3 0 0 0 0 0 0 0 0 0 0 0 0 0 0 0 0 0 0 0 0 0 0 0 0 0 0 0 0 0 0 0 0 0 0 333 1038
40 151 208 196 163 0 0 0 0 0 0 0 0 0 0 0 0 0 0 0 0 0 0 0 0 0 0 0 0 0 0 0 0 0 0 0 0 0 0 0 0 0 391
51 41 168 143 51 0 0 0 0 0 0 0 0 0 0 0 0 0 0 0 0 0 0 0 0 0 0 0 0 0 0 0 0 0 0 0 0 0 0 0 0 0 0
60 64 22 14 0 0 0 0 0 0 0 0 0 0 0 0 0 0 0 0 0 0 0 0 0 0 0 0 0 0 0 0 0 0 0 0 0 0 0 0 0 0 0
0 0 0 0 0 0 0 0 0 0 0 0 0 0 0 0 0 0 0 0 0 0 0 0 0 0 0 0 0 0 0 0 0 0 0 0 0 0 0 0 0 0 0
0 0 0 0 0 0 0 0 0 0 0 0 0 0 0 0 0 0 0 0 0 0 0 0 0 0 0 0 0 0 0 0 0 0 0 0 0 0 0 0 0 0 0
0 0 0 0 0 0 0 0 0 0 0 0 0 0 0 0 0 0 0 0 0 0 0 0 0 0 0 0 0 0 0 0 0 0 0 0 0 0 0 0 0 0 0
0 0 0 0 0 0 0 0 0 0 0 0 0 0 0 0 0 0 0 0 0 0 0 0 0 0 0 0 0 0 0 0 0 0 0 0 0 0 0 0 0 0 0
0 0 0 0 0 0 0 0 0 0 0 0 0 0 0 0 0 0 0 0 0 0 0 0 0 0 0 0 0 0 0 0 0 0 0 0 0 0 0 0 0 0 0
0 0 0 0 0 0 0 0 0 0 0 0 0 0 0 0 0 0 0 0 0 0 0 0 0 0 0 0 0 0 0 0 0 0 0 0 0 0 0 0 0 0 0
0 0 0 0 0 0 0 0 0 0 0 0 0 0 0 0 0 0 0 0 0 0 0 0 0 0 0 0 0 0 0 0 0 0 0 0 0 0 0 0 0 0 0
0 0 0 0 0 0 0 0 0 0 0 0 0 0 0 0 0 0 0 0 0 0 0 0 0 0 0 0 0 0 0 0 0 0 0 0 0 0 0 0 0 0 0
0 0 0 0 0 0 0 0 0 0 0 0 0 0 0 0 0 0 0 0 0 0 0 0 0 0 0 0 0 0 0 0 0 0 0 0 0 0 0 0 0 0 0
0 0 0 0 0 0 0 0 0 0 0 0 0 0 0 0 0 0 0 0 0 0 0 0 0 0 0 0 0 0 0 0 0 0 0 0 0 0 0 0 0 0 0
0 0 0 0 0 0 0 0 0 0 0 0 0 0 0 0 0 0 0 0 0 0 0 0 0 0 0 0 0 0 0 0 0 0 0 0 0 0 0 0 0 0 0

GFSSE_con_mlcape_075.txt.gz
CAPE
0 519 979 520 10 0 0 0 0 7 6 37 145 16 2 43 329 576 722 731 702 664 750 737 759 733 595 653 601 407 489 555 516 48 10 6 28 419 660 445 696 780 999
152 564 659 478 19 0 0 0 0 1 4 2 1 1 0 0 0 32 150 276 578 663 655 675 663 699 608 721 487 504 525 459 446 270 23 0 28 8 344 307 298 875 977
18 491 537 327 0 2 0 0 0 0 0 0 0 0 0 0 0 0 0 2 3 195 494 580 598 615 578 764 610 345 466 417 285 254 100 1 0 0 4 109 91 576 870
203 379 490 94 51 9 1 0 0 0 0 0 0 0 0 0 0 0 0 0 0 0 8 215 567 596 663 797 662 438 380 441 287 231 117 33 55 37 13 30 55 138 426
267 277 232 96 35 220 0 0 0 0 0 0 0 0 0 0 0 0 0 0 0 0 0 0 10 157 133 619 558 435 404 193 252 238 38 6 96 191 88 41 62 235 300
243 388 369 132 70 8 15 1 0 0 0 0 0 1 0 0 3 4 4 5 2 2 0 0 0 0 0 0 88 35 160 58 28 180 140 147 181 407 197 125 74 118 443
92 336 236 202 141 143 70 14 0 7 23 19 0 0 5 19 16 142 318 279 177 7 4 1 0 0 0 0 0 0 0 0 0 135 119 151 258 817 412 259 151 101 136
0 363 189 245 291 681 364 386 469 397 397 350 295 128 162 156 220 77 60 26 19 3 0 0 0 0 0 0 0 0 0 0 0 144 131 182 210 569 764 533 292 228 153
179 170 60 190 352 592 720 583 469 435 284 259 309 179 28 23 1 0 0 0 0 0 0 0 0 0 0 0 0 0 0 0 0 0 43 12 91 348 465 526 663 277 288
226 53 97 215 260 384 478 363 285 135 37 9 8 0 0 0 0 0 0 0 0 0 0 0 0 0 0 0 0 0 0 0 0 0 0 0 0 0 0 147 448 631 318
119 125 216 230 266 116 133 129 8 0 0 0 0 0 0 0 0 0 0 0 0 0 0 0 0 0 0 0 0 0 0 0 0 0 0 0 0 0 0 0 0 600 651
171 246 284 257 48 33 5 0 0 0 0 0 0 0 0 0 0 0 0 0 0 0 0 0 0 0 0 0 0 0 0 0 0 0 0 0 0 0 0 0 0 0 666
177 200 178 62 14 1 0 0 0 0 0 0 0 0 0 0 0 0 0 0 0 0 0 0 0 0 0 0 0 0 0 0 0 0 0 0 0 0 0 0 0 0 0
216 220 234 85 0 0 0 0 0 0 0 0 0 0 0 0 0 0 0 0 0 0 0 0 0 0 0 0 0 0 0 0 0 0 0 0 0 0 0 0 0 0 0
112 121 159 0 0 0 0 0 0 0 0 0 0 0 0 0 0 0 0 0 0 0 0 0 0 0 0 0 0 0 0 0 0 0 0 0 0 0 0 0 0 0 0
0 0 0 0 0 0 0 0 0 0 0 0 0 0 0 0 0 0 0 0 0 0 0 0 0 0 0 0 0 0 0 0 0 0 0 0 0 0 0 0 0 0 0
0 0 0 0 0 0 0 0 0 0 0 0 0 0 0 0 0 0 0 0 0 0 0 0 0 0 0 0 0 0 0 0 0 0 0 0 0 0 0 0 0 0 0
0 0 0 0 0 0 0 0 0 0 0 0 0 0 0 0 0 0 0 0 0 0 0 0 0 0 0 0 0 0 0 0 0 0 0 0 0 0 0 0 0 0 0
0 0 0 0 0 0 0 0 0 0 0 0 0 0 0 0 0 0 0 0 0 0 0 0 0 0 0 0 0 0 0 0 0 0 0 0 0 0 0 0 0 0 0
0 0 0 0 0 0 0 0 0 0 0 0 0 0 0 0 0 0 0 0 0 0 0 0 0 0 0 0 0 0 0 0 0 0 0 0 0 0 0 0 0 0 0
0 0 0 0 0 0 0 0 0 0 0 0 0 0 0 0 0 0 0 0 0 0 0 0 0 0 0 0 0 0 0 0 0 0 0 0 0 0 0 0 0 0 0
0 0 0 0 0 0 0 0 0 0 0 0 0 0 0 0 0 0 0 0 0 0 0 0 0 0 0 0 0 0 0 0 0 0 0 0 0 0 0 0 0 0 0
0 0 0 0 0 0 0 0 0 0 0 0 0 0 0 0 0 0 0 0 0 0 0 0 0 0 0 0 0 0 0 0 0 0 0 0 0 0 0 0 0 0 0
0 0 0 0 0 0 0 0 0 0 0 0 0 0 0 0 0 0 0 0 0 0 0 0 0 0 0 0 0 0 0 0 0 0 0 0 0 0 0 0 0 0 0
0 0 0 0 0 0 0 0 0 0 0 0 0 0 0 0 0 0 0 0 0 0 0 0 0 0 0 0 0 0 0 0 0 0 0 0 0 0 0 0 0 0 0
0 0 0 0 0 0 0 0 0 0 0 0 0 0 0 0 0 0 0 0 0 0 0 0 0 0 0 0 0 0 0 0 0 0 0 0 0 0 0 0 0 0 0

GFSSE_con_mlcape_078.txt.gz
CAPE
117 402 660 85 0 0 0 0 3 9 26 34 5 2 37 289 423 615 659 642 618 607 604 560 348 507 461 442 476 437 410 406 18 0 0 0 116 387 339 850 802 898 940
149 744 584 23 0 0 0 0 2 3 4 3 1 0 0 0 8 8 108 278 414 433 693 646 452 429 594 553 526 628 260 492 181 0 0 0 0 17 69 410 755 845 994
323 527 528 19 4 0 0 0 0 0 2 0 0 0 0 0 0 1 2 2 52 113 479 466 512 576 593 519 402 82 79 383 468 25 0 0 0 0 35 7 516 777 844
294 434 207 11 6 0 0 0 0 0 0 0 0 0 0 0 0 0 0 0 0 0 13 310 382 406 600 469 443 440 155 205 268 84 1 0 0 16 2 34 125 451 679
244 357 87 64 76 0 0 0 0 0 0 0 0 0 0 3 3 1 0 0 0 0 0 0 0 0 0 50 42 164 162 9 205 36 10 1 0 53 17 19 160 241 298
196 140 222 102 92 3 2 2 2 1 0 2 0 0 2 5 4 6 9 5 5 5 1 0 0 0 0 0 0 0 0 0 25 35 170 160 50 225 97 48 45 247 290
170 225 159 124 68 40 14 3 4 12 0 0 5 48 6 65 213 218 94 74 5 7 2 0 0 0 0 0 0 0 0 0 23 19 79 104 256 494 337 161 57 74 262
56 162 216 252 310 166 50 135 350 463 360 276 167 141 198 133 106 30 3 2 0 0 0 0 0 0 0 0 0 0 0 0 4 17 15 174 144 318 647 358 127 53 97
49 20 88 403 854 727 671 604 424 387 360 293 155 150 40 1 0 0 0 0 0 0 0 0 0 0 0 0 0 0 0 0 0 0 0 0 12 105 255 363 549 217 101
164 0 73 353 584 558 575 498 319 135 173 67 0 0 0 0 0 0 0 0 0 0 0 0 0 0 0 0 0 0 0 0 0 0 0 0 0 0 0 0 197 554 295
124 40 195 237 380 313 177 194 49 0 0 1 0 0 0 0 0 0 0 0 0 0 0 0 0 0 0 0 0 0 0 0 0 0 0 0 0 0 0 0 0 57 613
19 122 216 223 192 174 87 0 0 0 0 0 0 0 0 0 0 0 0 0 0 0 0 0 0 0 0 0 0 0 0 0 0 0 0 0 0 0 0 0 0 0 39
95 288 315 211 100 16 0 0 0 0 0 0 0 0 0 0 0 0 0 0 0 0 0 0 0 0 0 0 0 0 0 0 0 0 0 0 0 0 0 0 0 0 0
244 382 409 90 0 0 0 0 0 0 0 0 0 0 0 0 0 0 0 0 0 0 0 0 0 0 0 0 0 0 0 0 0 0 0 0 0 0 0 0 0 0 0
301 356 283 2 0 0 0 0 0 0 0 0 0 0 0 0 0 0 0 0 0 0 0 0 0 0 0 0 0 0 0 0 0 0 0 0 0 0 0 0 0 0 0
270 279 105 0 0 0 0 0 0 0 0 0 0 0 0 0 0 0 0 0 0 0 0 0 0 0 0 0 0 0 0 0 0 0 0 0 0 0 0 0 0 0 0
147 11 0 0 0 0 0 0 0 0 0 0 0 0 0 0 0 0 0 0 0 0 0 0 0 0 0 0 0 0 0 0 0 0 0 0 0 0 0 0 0 0 0
0 0 0 0 0 0 0 0 0 0 0 0 0 0 0 0 0 0 0 0 0 0 0 0 0 0 0 0 0 0 0 0 0 0 0 0 0 0 0 0 0 0 0
0 0 0 0 0 0 0 0 0 0 0 0 0 0 0 0 0 0 0 0 0 0 0 0 0 0 0 0 0 0 0 0 0 0 0 0 0 0 0 0 0 0 0
0 0 0 0 0 0 0 0 0 0 0 0 0 0 0 0 0 0 0 0 0 0 0 0 0 0 0 0 0 0 0 0 0 0 0 0 0 0 0 0 0 0 0
0 0 0 0 0 0 0 0 0 0 0 0 0 0 0 0 0 0 0 0 0 0 0 0 0 0 0 0 0 0 0 0 0 0 0 0 0 0 0 0 0 0 0
0 0 0 0 0 0 0 0 0 0 0 0 0 0 0 0 0 0 0 0 0 0 0 0 0 0 0 0 0 0 0 0 0 0 0 0 0 0 0 0 0 0 0
0 0 0 0 0 0 0 0 0 0 0 0 0 0 0 0 0 0 0 0 0 0 0 0 0 0 0 0 0 0 0 0 0 0 0 0 0 0 0 0 0 0 0
0 0 0 0 0 0 0 0 0 0 0 0 0 0 0 0 0 0 0 0 0 0 0 0 0 0 0 0 0 0 0 0 0 0 0 0 0 0 0 0 0 0 0
0 0 0 0 0 0 0 0 0 0 0 0 0 0 0 0 0 0 0 0 0 0 0 0 0 0 0 0 0 0 0 0 0 0 0 0 0 0 0 0 0 0 0
0 0 0 0 0 0 0 0 0 0 0 0 0 0 0 0 0 0 0 0 0 0 0 0 0 0 0 0 0 0 0 0 0 0 0 0 0 0 0 0 0 0 0

GFSSE_con_mlcape_081.txt.gz
CAPE
150 345 324 6 3 0 1 1 3 24 21 2 2 94 298 345 461 566 527 426 460 474 457 182 366 308 411 538 433 336 418 13 0 0 0 0 59 298 801 885 853 900 948
173 544 313 0 0 0 2 4 5 4 4 2 0 0 0 1 3 6 207 306 224 565 599 415 414 508 555 428 198 325 475 266 0 0 0 0 0 1 239 647 936 897 1062
123 549 3 1 0 0 0 2 2 2 0 0 0 0 0 0 1 3 5 3 69 180 369 415 535 587 593 634 198 258 406 230 72 4 0 0 0 0 6 415 568 895 1090
425 371 1 8 0 0 0 0 1 0 0 0 0 0 0 0 0 0 0 0 0 1 18 109 0 85 260 254 268 248 72 344 37 6 0 0 0 0 1 48 416 735 922
225 249 0 6 1 0 0 0 0 0 0 0 0 1 1 1 0 0 0 0 0 0 0 0 0 0 0 0 0 0 13 339 22 8 0 0 0 0 0 25 152 240 791
268 22 151 73 1 1 2 1 0 0 2 0 0 3 4 5 8 10 9 4 6 6 1 0 0 0 0 0 0 0 5 97 17 11 12 44 62 180 9 0 7 247 135
102 174 176 262 10 6 7 4 4 3 6 16 22 6 74 175 145 140 94 21 3 1 0 0 0 0 0 0 0 0 0 55 15 11 29 223 338 256 302 51 0 32 275
56 119 150 138 100 50 29 101 223 152 158 153 201 76 186 168 103 36 1 0 0 0 0 0 0 0 0 0 0 0 0 0 4 10 53 33 99 58 394 398 77 8 57
112 51 201 260 247 183 361 560 410 429 306 324 248 127 38 24 0 0 0 0 0 0 0 0 0 0 0 0 0 0 0 0 0 0 0 0 0 0 18 353 563 178 56
91 98 172 636 580 703 641 520 425 473 412 138 13 0 0 0 0 0 0 0 0 0 0 0 0 0 0 0 0 0 0 0 0 0 0 0 0 0 0 0 2 606 281
91 68 343 722 690 559 503 500 373 252 81 0 0 0 0 0 0 0 0 0 0 0 0 0 0 0 0 0 0 0 0 0 0 0 0 0 0 0 0 0 0 0 417
0 65 318 570 449 390 311 59 0 7 0 0 0 0 0 0 0 0 0 0 0 0 0 0 0 0 0 0 0 0 0 0 0 0 0 0 0 0 0 0 0 0 0
21 164 302 373 329 165 30 0 0 0 0 0 0 0 0 0 0 0 0 0 0 0 0 0 0 0 0 0 0 0 0 0 0 0 0 0 0 0 0 0 0 0 0
28 218 354 298 202 11 0 0 0 0 0 0 0 0 0 0 0 0 0 0 0 0 0 0 0 0 0 0 0 0 0 0 0 0 0 0 0 0 0 0 0 0 0
180 316 386 214 49 0 0 0 0 0 0 0 0 0 0 0 0 0 0 0 0 0 0 0 0 0 0 0 0 0 0 0 0 0 0 0 0 0 0 0 0 0 0
369 444 356 55 0 0 0 0 0 0 0 0 0 0 0 0 0 0 0 0 0 0 0 0 0 0 0 0 0 0 0 0 0 0 0 0 0 0 0 0 0 0 0
435 380 224 1 0 0 0 0 0 0 0 0 0 0 0 0 0 0 0 0 0 0 0 0 0 0 0 0 0 0 0 0 0 0 0 0 0 0 0 0 0 0 0
324 286 7 0 0 0 0 0 0 0 0 0 0 0 0 0 0 0 0 0 0 0 0 0 0 0 0 0 0 0 0 0 0 0 0 0 0 0 0 0 0 0 0
217 19 0 0 0 0 0 0 0 0 0 0 0 0 0 0 0 0 0 0 0 0 0 0 0 0 0 0 0 0 0 0 0 0 0 0 0 0 0 0 0 0 0
12 0 0 0 0 0 0 0 0 0 0 0 0 0 0 0 0 0 0 0 0 0 0 0 0 0 0 0 0 0 0 0 0 0 0 0 0 0 0 0 0 0 0
0 0 0 0 0 0 0 0 0 0 0 0 0 0 0 0 0 0 0 0 0 0 0 0 0 0 0 0 0 0 0 0 0 0 0 0 0 0 0 0 0 0 0
0 0 0 0 0 0 0 0 0 0 0 0 0 0 0 0 0 0 0 0 0 0 0 0 0 0 0 0 0 0 0 0 0 0 0 0 0 0 0 0 0 0 0
0 0 0 0 0 0 0 0 0 0 0 0 0 0 0 0 0 0 0 0 0 0 0 0 0 0 0 0 0 0 0 0 0 0 0 0 0 0 0 0 0 0 0
0 0 0 0 0 0 0 0 0 0 0 0 0 0 0 0 0 0 0 0 0 0 0 0 0 0 0 0 0 0 0 0 0 0 0 0 0 0 0 0 0 0 0
0 0 0 0 0 0 0 0 0 0 0 0 0 0 0 0 0 0 0 0 0 0 0 0 0 0 0 0 0 0 0 0 0 0 0 0 0 0 0 0 0 0 0
0 0 0 0 0 0 0 0 0 0 0 0 0 0 0 0 0 0 0 0 0 0 0 0 0 0 0 0 0 0 0 0 0 0 0 0 0 0 0 0 0 0 0

GFSSE_con_mlcape_084.txt.gz
CAPE
124 295 169 34 0 0 67 45 60 20 2 7 112 204 199 350 531 442 393 432 451 375 235 224 6 37 186 159 341 260 24 0 0 0 0 0 19 520 804 816 842 856 847
176 364 181 11 0 0 1 2 3 4 1 0 0 2 3 0 0 111 221 441 445 438 348 242 146 126 375 168 199 297 173 4 0 0 0 0 0 56 344 573 846 847 970
282 359 0 0 0 2 4 3 2 1 0 0 0 0 0 0 4 3 2 2 77 260 254 161 129 144 141 237 199 105 398 62 0 0 0 0 0 1 78 349 714 963 1050
333 80 0 0 0 0 1 1 0 0 0 0 0 0 0 0 0 0 0 0 0 0 1 0 0 0 0 0 0 37 419 25 0 0 0 0 0 0 2 70 329 849 952
341 7 0 2 0 0 0 0 0 0 0 0 0 0 0 0 0 0 0 0 0 0 0 0 0 0 0 0 0 67 464 73 7 0 0 0 0 0 0 1 35 184 804
177 7 85 2 0 0 0 0 0 0 0 0 2 5 6 9 4 10 6 8 8 4 3 1 1 1 0 0 0 19 139 17 8 0 0 9 0 133 0 0 0 37 134
126 5 47 26 2 2 2 1 1 16 0 0 16 4 126 169 131 135 50 2 2 0 0 0 0 0 0 0 0 0 87 14 0 0 0 13 0 2 284 14 0 0 90
17 163 315 115 13 51 50 48 51 90 163 255 139 100 188 152 72 0 0 0 0 0 0 0 0 0 0 0 0 0 0 0 0 0 0 0 0 0 1 452 126 0 0
135 118 194 153 204 138 165 501 360 329 320 338 248 160 17 1 0 0 0 0 0 0 0 0 0 0 0 0 0 0 0 0 0 0 0 0 0 0 0 0 231 318 16
165 92 149 247 192 230 593 456 541 480 539 213 35 0 0 0 0 0 0 0 0 0 0 0 0 0 0 0 0 0 0 0 0 0 0 0 0 0 0 0 0 0 319
149 108 243 431 338 639 508 574 634 646 144 0 0 0 0 0 0 0 0 0 0 0 0 0 0 0 0 0 0 0 0 0 0 0 0 0 0 0 0 0 0 0 17
0 76 330 572 524 557 538 325 222 108 0 0 0 0 0 0 0 0 0 0 0 0 0 0 0 0 0 0 0 0 0 0 0 0 0 0 0 0 0 0 0 0 0
5 90 426 517 421 360 215 15 10 1 0 0 0 0 0 0 0 0 0 0 0 0 0 0 0 0 0 0 0 0 0 0 0 0 0 0 0 0 0 0 0 0 0
34 56 416 288 277 177 25 0 0 0 0 0 0 0 0 0 0 0 0 0 0 0 0 0 0 0 0 0 0 0 0 0 0 0 0 0 0 0 0 0 0 0 0
117 46 425 173 102 20 0 0 0 0 0 0 0 0 0 0 0 0 0 0 0 0 0 0 0 0 0 0 0 0 0 0 0 0 0 0 0 0 0 0 0 0 0
249 106 351 222 23 0 0 0 0 0 0 0 0 0 0 0 0 0 0 0 0 0 0 0 0 0 0 0 0 0 0 0 0 0 0 0 0 0 0 0 0 0 0
397 245 312 199 5 0 0 0 0 0 0 0 0 0 0 0 0 0 0 0 0 0 0 0 0 0 0 0 0 0 0 0 0 0 0 0 0 0 0 0 0 0 0
503 409 163 45 0 0 0 0 0 0 0 0 0 0 0 0 0 0 0 0 0 0 0 0 0 0 0 0 0 0 0 0 0 0 0 0 0 0 0 0 0 0 0
482 394 88 0 0 0 0 0 0 0 0 0 0 0 0 0 0 0 0 0 0 0 0 0 0 0 0 0 0 0 0 0 0 0 0 0 0 0 0 0 0 0 0
227 93 34 0 0 0 0 0 0 0 0 0 0 0 0 0 0 0 0 0 0 0 0 0 0 0 0 0 0 0 0 0 0 0 0 0 0 0 0 0 0 0 0
16 37 0 0 0 0 0 0 0 0 0 0 0 0 0 0 0 0 0 0 0 0 0 0 0 0 0 0 0 0 0 0 0 0 0 0 0 0 0 0 0 0 0
7 0 0 0 0 0 0 0 0 0 0 0 0 0 0 0 0 0 0 0 0 0 0 0 0 0 0 0 0 0 0 0 0 0 0 0 0 0 0 0 0 0 0
0 0 0 0 0 0 0 0 0 0 0 0 0 0 0 0 0 0 0 0 0 0 0 0 0 0 0 0 0 0 0 0 0 0 0 0 0 0 0 0 0 0 0
0 0 0 0 0 0 0 0 0 0 0 0 0 0 0 0 0 0 0 0 0 0 0 0 0 0 0 0 0 0 0 0 0 0 0 0 0 0 0 0 0 0 0
0 0 0 0 0 0 0 0 0 0 0 0 0 0 0 0 0 0 0 0 0 0 0 0 0 0 0 0 0 0 0 0 0 0 0 0 0 0 0 0 0 0 0
0 0 0 0 0 0 0 0 0 0 0 0 0 0 0 0 0 0 0 0 0 0 0 0 0 0 0 0 0 0 0 0 0 0 0 0 0 0 0 0 0 0 0

GFSSE_con_mlcape_087.txt.gz
CAPE
74 161 131 8 0 279 212 217 37 0 27 78 205 182 316 461 423 386 396 372 378 277 122 31 63 147 231 226 204 47 0 0 0 0 0 0 262 440 703 758 718 670 687
204 234 126 12 0 17 24 2 0 2 0 0 10 3 1 13 44 218 407 445 421 316 274 128 99 89 216 170 185 195 4 0 0 0 0 0 0 293 559 443 689 868 879
336 196 123 0 0 0 0 1 0 0 0 0 0 0 0 1 6 6 3 8 89 4 0 2 7 5 0 0 177 313 15 0 0 0 0 0 0 1 170 488 610 786 936
406 140 0 0 0 1 0 0 0 0 0 0 0 0 0 0 1 0 0 0 0 0 0 0 0 0 0 0 249 460 4 0 0 0 0 2 0 0 1 51 366 723 686
239 0 0 0 0 0 0 0 0 0 0 0 0 0 0 0 0 0 0 0 0 0 1 0 0 0 0 0 222 522 62 9 0 0 1 4 18 0 0 0 0 242 754
132 11 33 0 0 0 0 0 0 0 0 0 2 4 3 3 5 11 9 5 8 3 1 7 0 0 0 0 170 212 98 3 0 1 3 2 3 178 2 0 0 0 269
109 63 10 2 0 0 0 0 0 0 0 1 3 17 72 80 132 54 6 4 0 0 2 0 0 0 0 0 0 116 31 0 0 1 0 0 1 0 379 164 0 0 52
150 96 22 2 4 2 12 18 47 28 51 211 144 71 152 98 27 0 0 0 0 0 0 0 0 0 0 0 4 0 0 0 0 0 0 2 0 0 0 2 365 14 0
140 119 440 3 48 111 113 162 176 228 301 291 233 167 13 0 0 0 0 0 0 0 0 0 0 0 0 0 0 0 0 0 0 0 0 0 0 0 0 0 0 338 30
195 232 318 126 129 140 439 649 446 389 377 306 15 0 0 0 0 0 0 0 0 0 0 0 0 0 0 0 0 0 0 0 0 0 0 0 0 0 0 0 0 0 382
290 242 268 301 253 400 651 397 444 446 275 0 0 0 0 0 0 0 0 0 0 0 0 0 0 0 0 0 0 0 0 0 0 0 0 0 0 0 0 0 0 0 0
98 147 383 405 381 705 575 451 542 109 0 0 0 0 0 0 0 0 0 0 0 0 0 0 0 0 0 0 0 0 0 0 0 0 0 0 0 0 0 0 0 0 0
38 148 427 615 786 849 475 277 156 0 0 0 0 0 0 0 0 0 0 0 0 0 0 0 0 0 0 0 0 0 0 0 0 0 0 0 0 0 0 0 0 0 0
46 118 472 719 598 511 67 85 4 0 0 0 0 0 0 0 0 0 0 0 0 0 0 0 0 0 0 0 0 0 0 0 0 0 0 0 0 0 0 0 0 0 0
106 109 446 472 488 191 14 0 0 0 0 0 0 0 0 0 0 0 0 0 0 0 0 0 0 0 0 0 0 0 0 0 0 0 0 0 0 0 0 0 0 0 0
263 105 397 457 317 69 0 0 0 0 0 0 0 0 0 0 0 0 0 0 0 0 0 0 0 0 0 0 0 0 0 0 0 0 0 0 0 0 0 0 0 0 0
443 302 185 362 151 1 0 0 0 0 0 0 0 0 0 0 0 0 0 0 0 0 0 0 0 0 0 0 0 0 0 0 0 0 0 0 0 0 0 0 0 0 0
537 484 382 368 45 1 0 0 0 0 0 0 0 0 0 0 0 0 0 0 0 0 0 0 0 0 0 0 0 0 0 0 0 0 0 0 0 0 0 0 0 0 0
583 577 428 90 25 0 0 0 0 0 0 0 0 0 0 0 0 0 0 0 0 0 0 0 0 0 0 0 0 0 0 0 0 0 0 0 0 0 0 0 0 0 0
709 689 283 16 0 0 0 0 0 0 0 0 0 0 0 0 0 0 0 0 0 0 0 0 0 0 0 0 0 0 0 0 0 0 0 0 0 0 0 0 0 0 0
379 282 44 5 0 0 0 0 0 0 0 0 0 0 0 0 0 0 0 0 0 0 0 0 0 0 0 0 0 0 0 0 0 0 0 0 0 0 0 0 0 0 0
140 38 0 0 0 0 0 0 0 0 0 0 0 0 0 0 0 0 0 0 0 0 0 0 0 0 0 0 0 0 0 0 0 0 0 0 0 0 0 0 0 0 0
27 0 0 0 0 0 0 0 0 0 0 0 0 0 0 0 0 0 0 0 0 0 0 0 0 0 0 0 0 0 0 0 0 0 0 0 0 0 0 0 0 0 0
0 0 0 0 0 0 0 0 0 0 0 0 0 0 0 0 0 0 0 0 0 0 0 0 0 0 0 0 0 0 0 0 0 0 0 0 0 0 0 0 0 0 0
0 0 0 0 0 0 0 0 0 0 0 0 0 0 0 0 0 0 0 0 0 0 0 0 0 0 0 0 0 0 0 0 0 0 0 0 0 0 0 0 0 0 0
0 0 0 0 0 0 0 0 0 0 0 0 0 0 0 0 0 0 0 0 0 0 0 0 0 0 0 0 0 0 0 0 0 0 0 0 0 0 0 0 0 0 0

GFSSE_con_mlcape_090.txt.gz
CAPE
3 33 56 4 692 717 641 219 89 154 142 338 331 421 510 515 458 445 500 391 335 285 85 198 202 331 246 261 51 1 0 0 0 0 0 26 446 626 581 629 499 462 590
10 67 228 0 429 310 166 3 0 0 3 81 63 81 143 140 274 413 385 431 291 201 140 98 101 83 21 266 137 0 0 0 0 0 0 0 5 334 636 632 757 728 679
93 19 111 0 35 76 33 0 0 0 0 0 0 0 0 0 1 0 0 4 0 0 0 0 0 0 3 413 201 0 0 0 0 0 0 0 0 0 189 540 659 761 732
133 5 91 0 0 0 1 0 0 0 0 0 0 0 0 0 0 0 0 0 0 0 0 0 0 0 23 597 201 70 0 0 0 0 6 2 0 0 2 48 517 762 786
138 17 1 1 1 0 0 0 0 0 0 0 0 0 0 0 0 0 0 1 1 1 1 0 0 0 24 466 317 188 41 0 0 10 2 15 21 0 0 1 27 551 698
2 19 0 1 0 0 0 0 0 0 1 3 5 0 0 4 11 9 7 11 4 10 5 0 0 0 19 401 340 205 10 0 3 8 16 2 13 333 132 0 1 30 537
1 4 0 0 0 0 0 0 0 0 3 3 4 99 69 87 102 43 4 0 3 1 0 0 0 0 0 69 266 120 0 0 1 1 12 13 0 0 1 288 12 0 83
13 0 0 0 0 0 0 10 21 1 59 243 124 119 150 106 0 0 0 0 0 0 0 0 0 0 1 3 27 0 0 0 2 10 25 5 0 0 0 0 312 0 0
11 0 0 0 0 3 49 135 152 232 300 324 238 170 0 0 0 0 0 0 0 0 0 0 0 0 0 0 0 0 0 0 0 0 0 0 0 0 0 0 0 387 216
0 0 0 0 0 54 277 356 331 461 410 363 69 0 0 0 0 0 0 0 0 0 0 0 0 0 0 0 0 0 0 0 0 0 0 0 0 0 0 0 0 0 277
0 32 0 0 14 329 511 431 400 341 341 0 0 0 0 0 0 0 0 0 0 0 0 0 0 0 0 0 0 0 0 0 0 0 0 0 0 0 0 0 0 0 0
2 34 6 7 72 552 516 452 399 463 4 0 0 0 0 0 0 0 0 0 0 0 0 0 0 0 0 0 0 0 0 0 0 0 0 0 0 0 0 0 0 0 0
6 48 103 60 259 633 523 512 485 14 0 0 0 0 0 0 0 0 0 0 0 0 0 0 0 0 0 0 0 0 0 0 0 0 0 0 0 0 0 0 0 0 0
75 130 329 284 615 827 633 488 262 4 0 0 0 0 0 0 0 0 0 0 0 0 0 0 0 0 0 0 0 0 0 0 0 0 0 0 0 0 0 0 0 0 0
226 232 507 886 1023 869 700 416 126 1 0 0 0 0 0 0 0 0 0 0 0 0 0 0 0 0 0 0 0 0 0 0 0 0 0 0 0 0 0 0 0 0 0
379 303 653 1128 1031 820 379 76 51 8 0 0 0 0 0 0 0 0 0 0 0 0 0 0 0 0 0 0 0 0 0 0 0 0 0 0 0 0 0 0 0 0 0
579 423 688 1031 922 731 112 0 0 0 0 0 0 0 0 0 0 0 0 0 0 0 0 0 0 0 0 0 0 0 0 0 0 0 0 0 0 0 0 0 0 0 0
910 575 690 811 844 656 0 0 0 0 0 0 0 0 0 0 0 0 0 0 0 0 0 0 0 0 0 0 0 0 0 0 0 0 0 0 0 0 0 0 0 0 0
1121 1031 845 840 861 87 0 0 0 0 0 0 0 0 0 0 0 0 0 0 0 0 0 0 0 0 0 0 0 0 0 0 0 0 0 0 0 0 0 0 0 0 0
442 1140 1261 968 384 0 0 0 0 0 0 0 0 0 0 0 0 0 0 0 0 0 0 0 0 0 0 0 0 0 0 0 0 0 0 0 0 0 0 0 0 0 0
571 1110 1257 629 36 0 0 0 0 0 0 0 0 0 0 0 0 0 0 0 0 0 0 0 0 0 0 0 0 0 0 0 0 0 0 0 0 0 0 0 0 0 0
840 1189 1141 408 3 0 0 0 0 0 0 0 0 0 0 0 0 0 0 0 0 0 0 0 0 0 0 0 0 0 0 0 0 0 0 0 0 0 0 0 0 0 0
884 1000 884 99 0 0 0 0 0 0 0 0 0 0 0 0 0 0 0 0 0 0 0 0 0 0 0 0 0 0 0 0 0 0 0 0 0 0 0 0 0 0 0
852 700 236 44 0 0 0 0 0 0 0 0 0 0 0 0 0 0 0 0 0 0 0 0 0 0 0 0 0 0 0 0 0 0 0 0 0 0 0 0 0 0 0
158 85 14 0 0 0 0 0 0 0 0 0 0 0 0 0 0 0 0 0 0 0 0 0 0 0 0 0 0 0 0 0 0 0 0 0 0 0 0 0 0 0 0
0 0 0 0 0 0 0 0 0 0 0 0 0 0 0 0 0 0 0 0 0 0 0 0 0 0 0 0 0 0 0 0 0 0 0 0 0 0 0 0 0 0 0

GFSSE_con_mlcape_093.txt.gz
CAPE
348 0 0 818 850 911 640 440 407 264 556 599 598 611 621 627 519 516 444 429 512 335 286 313 219 142 272 13 1 0 0 0 0 0 0 17 268 481 580 374 285 336 429
185 0 0 719 818 656 259 118 56 103 225 135 125 275 366 296 510 468 354 225 135 80 8 6 0 89 329 67 0 0 0 0 0 0 0 0 0 227 487 475 457 584 573
0 83 0 246 455 378 75 16 0 0 5 28 1 0 59 0 0 37 1 0 0 0 0 0 0 97 479 139 54 0 0 0 0 3 0 0 0 4 102 444 575 542 551
1 5 5 11 227 115 42 0 0 0 0 0 0 0 0 0 0 0 0 0 0 0 1 0 0 98 531 190 157 57 0 0 0 0 19 7 0 0 4 102 575 581 406
0 4 39 20 13 1 0 0 0 0 0 0 0 0 0 0 0 1 1 2 1 2 0 0 0 156 459 287 224 28 0 0 10 6 0 5 25 20 0 2 54 502 600
0 105 37 49 6 1 0 0 0 0 0 0 0 0 0 2 8 11 4 4 14 0 0 0 0 145 465 338 187 0 0 2 5 20 10 0 0 7 69 2 1 38 467
0 42 46 17 1 1 0 0 0 1 1 4 30 37 45 161 100 4 0 1 0 0 0 0 18 60 210 208 22 0 0 0 26 27 3 0 0 0 0 196 1 1 2
0 0 0 0 1 1 1 0 0 0 61 101 34 53 98 19 0 0 0 0 0 0 0 0 0 0 5 11 0 0 0 0 16 5 0 0 0 0 0 0 241 178 0
0 0 0 0 0 7 14 37 53 223 315 330 249 25 0 0 0 0 0 0 0 0 0 0 0 0 0 0 0 0 0 0 0 0 0 0 0 0 0 0 0 69 403
0 0 0 0 0 0 121 357 412 370 402 354 37 0 0 0 0 0 0 0 0 0 0 0 0 0 0 0 0 0 0 0 0 0 0 0 0 0 0 0 0 0 1
0 0 0 0 9 213 242 489 483 527 236 0 0 0 0 0 0 0 0 0 0 0 0 0 0 0 0 0 0 0 0 0 0 0 0 0 0 0 0 0 0 0 0
0 36 3 8 26 175 326 354 425 397 69 4 0 0 0 0 0 0 0 0 0 0 0 0 0 0 0 0 0 0 0 0 0 0 0 0 0 0 0 0 0 0 0
27 64 3 14 69 204 100 302 304 189 1 0 0 0 0 0 0 0 0 0 0 0 0 0 0 0 0 0 0 0 0 0 0 0 0 0 0 0 0 0 0 0 0
66 69 60 54 137 249 170 571 188 4 0 0 0 0 0 0 0 0 0 0 0 0 0 0 0 0 0 0 0 0 0 0 0 0 0 0 0 0 0 0 0 0 0
106 130 225 246 419 443 453 428 136 1 0 0 0 0 0 0 0 0 0 0 0 0 0 0 0 0 0 0 0 0 0 0 0 0 0 0 0 0 0 0 0 0 0
155 283 456 501 691 597 511 459 129 0 0 0 0 0 0 0 0 0 0 0 0 0 0 0 0 0 0 0 0 0 0 0 0 0 0 0 0 0 0 0 0 0 1
289 378 674 952 914 815 642 35 1 3 0 0 0 0 0 0 0 0 0 0 0 0 0 0 0 0 0 0 0 0 0 0 0 0 0 0 0 0 0 0 0 0 0
432 514 873 1390 1140 973 474 0 0 0 0 0 0 0 0 0 0 0 0 0 0 0 0 0 0 0 0 0 0 0 0 0 0 0 0 0 0 0 0 0 0 0 0
776 720 890 1439 1114 319 0 0 0 0 0 0 0 0 0 0 0 0 0 0 0 0 0 0 0 0 0 0 0 0 0 0 0 0 0 0 0 0 0 0 0 0 0
1050 1120 984 1229 1147 9 0 0 0 0 0 0 0 0 0 0 0 0 0 0 0 0 0 0 0 0 0 0 0 0 0 0 0 0 0 0 0 0 0 0 0 0 0
1317 839 1341 1212 565 0 0 0 0 0 0 0 0 0 0 0 0 0 0 0 0 0 0 0 0 0 0 0 0 0 0 0 0 0 0 0 0 0 0 0 0 0 0
318 31 1367 1193 401 8 0 0 0 0 0 0 0 0 0 0 0 0 0 0 0 0 0 0 0 0 0 0 0 0 0 0 0 0 0 0 0 0 0 0 0 0 0
207 759 1204 1062 293 25 0 0 0 0 0 0 0 0 0 0 0 0 0 0 0 0 0 0 0 0 0 0 0 0 0 0 0 0 0 0 0 0 0 0 0 0 0
656 1159 1426 1037 314 30 0 0 0 0 0 0 0 0 0 0 0 0 0 0 0 0 0 0 0 0 0 0 0 0 0 0 0 0 0 0 0 0 0 0 0 0 0
1028 1182 1316 931 208 42 0 0 0 0 0 0 0 0 0 0 0 0 0 0 0 0 0 0 0 0 0 0 0 0 0 0 0 0 0 0 0 0 0 0 0 0 0
927 1244 951 660 219 2 0 0 0 0 0 0 0 0 0 0 0 0 0 0 0 0 0 0 0 0 0 0 0 0 0 0 0 0 0 0 0 0 0 0 0 0 0

GFSSE_con_mlcape_096.txt.gz
CAPE
26 18 832 915 968 845 652 510 390 674 574 617 609 489 472 548 436 367 419 353 210 152 32 2 160 168 5 0 0 0 0 0 0 0 0 0 183 406 463 318 471 386 526
0 19 882 914 997 616 351 329 403 405 207 181 399 286 256 322 352 259 95 77 20 0 0 1 100 319 4 0 0 0 0 0 12 11 0 0 0 142 343 301 354 591 616
0 0 771 969 642 356 181 1 0 173 79 10 40 129 35 73 25 0 0 0 0 0 1 1 95 364 48 1 0 0 0 2 9 18 12 0 0 5 223 251 381 524 667
70 0 381 649 533 289 152 0 0 0 0 0 1 3 1 0 0 0 0 0 0 1 0 0 162 290 142 102 0 0 10 9 0 0 0 0 8 2 2 157 271 453 612
49 0 54 476 243 110 0 0 0 0 0 0 0 0 0 0 0 1 1 4 0 0 0 1 269 294 217 124 0 0 0 36 14 0 0 0 4 16 2 1 56 202 329
93 91 76 151 38 0 0 0 0 0 0 0 0 0 1 2 8 5 34 0 0 0 1 12 202 242 176 39 0 0 14 36 8 0 0 0 0 11 58 3 2 32 244
339 145 165 99 0 0 0 0 1 2 1 1 1 43 143 91 6 1 3 0 0 0 1 5 8 89 63 25 0 0 0 18 0 0 0 0 0 0 3 100 109 3 4
221 100 110 47 0 0 0 0 1 1 60 86 18 42 76 4 0 2 2 0 0 0 0 0 0 0 0 0 0 0 0 0 0 0 0 0 0 0 0 0 16 237 6
8 8 0 13 32 8 3 1 118 397 357 278 158 2 0 0 0 0 0 0 0 0 0 0 0 0 0 0 0 0 0 0 0 0 0 0 0 0 0 0 0 1 207
0 0 0 0 6 37 115 227 526 475 434 74 0 0 0 0 0 0 0 0 0 0 0 0 0 0 0 0 0 0 0 0 0 0 0 0 0 0 0 0 0 0 1
0 0 0 0 0 65 323 627 546 601 308 0 0 0 0 0 0 0 0 0 0 0 0 0 0 0 0 0 0 0 0 0 0 0 0 0 0 0 0 0 0 0 0
0 0 0 0 26 203 414 397 429 198 0 0 0 0 5 0 0 0 0 0 0 0 0 0 0 0 0 0 0 0 0 0 0 0 0 0 0 0 0 0 0 0 0
0 0 0 5 233 167 480 381 357 235 14 0 0 0 0 0 0 0 0 0 0 0 0 0 0 0 0 0 0 0 0 0 0 0 0 0 0 0 0 0 0 0 0
32 3 0 15 70 174 496 181 396 33 0 0 0 0 0 0 0 0 0 0 0 0 0 0 0 0 0 0 0 0 0 0 0 0 0 0 0 0 0 0 0 0 0
105 10 3 12 229 402 544 234 43 0 0 0 0 0 0 0 0 0 0 0 0 0 0 0 0 0 0 0 0 0 0 0 0 0 0 0 0 0 0 1 4 5 2
128 64 62 53 226 339 402 213 1 0 0 0 0 0 0 0 0 0 0 0 0 0 0 0 0 0 0 0 0 0 0 0 0 0 0 0 0 0 0 0 0 0 0
166 110 212 346 508 474 227 38 0 0 0 0 0 0 0 0 0 0 0 0 0 0 0 0 0 0 0 0 0 0 0 0 0 0 0 0 0 0 0 0 0 0 0
150 265 543 620 552 421 35 0 0 0 0 0 0 0 0 0 0 0 0 0 0 0 0 0 0 0 0 0 0 0 0 0 0 0 0 0 0 0 0 0 0 0 0
187 394 1153 1027 529 115 0 0 0 0 0 0 0 0 0 0 0 0 0 0 0 0 0 0 0 0 0 0 0 0 0 0 0 0 0 0 0 0 0 0 0 0 0
314 513 1583 1394 504 3 0 0 0 0 0 0 0 0 0 0 0 0 0 0 0 0 0 0 0 0 0 0 0 0 0 0 0 0 0 0 0 0 0 0 0 0 0
367 574 1353 1242 390 12 0 0 0 0 0 0 0 0 0 0 0 0 0 0 0 0 0 0 0 0 0 0 0 0 0 0 0 0 0 0 0 0 0 0 0 0 0
583 394 1170 725 207 2 0 0 0 0 0 0 0 0 0 0 0 0 0 0 0 0 0 0 0 0 0 0 0 0 0 0 0 0 0 0 0 0 0 0 0 0 0
982 600 1170 653 209 12 0 0 0 0 0 0 0 0 0 0 0 0 0 0 0 0 0 0 0 0 0 0 0 0 0 0 0 0 0 0 0 0 0 0 0 0 0
763 184 1090 827 346 80 0 0 0 0 0 0 0 0 0 0 0 0 0 0 0 0 0 0 0 0 0 0 0 0 0 0 0 0 0 0 0 0 0 0 0 0 0
403 654 1357 664 315 159 0 0 0 0 0 0 0 0 0 0 0 0 0 0 0 0 0 0 0 0 0 0 0 0 0 0 0 0 0 0 0 0 0 0 0 0 0
730 1172 1322 772 311 33 0 0 0 0 0 0 0 0 0 0 0 0 0 0 0 0 0 0 0 0 0 0 0 0 0 0 0 0 0 0 0 0 0 0 0 0 0

GFSSE_con_mlcape_099.txt.gz
CAPE
6 345 809 1061 896 775 733 701 717 666 691 629 516 442 364 352 277 248 148 94 1 1 2 171 11 0 0 0 0 6 71 16 0 0 0 36 157 316 392 397 323 345 366
0 767 916 1026 783 573 602 520 644 490 571 500 446 346 346 221 109 7 8 2 1 2 3 83 49 1 0 0 14 21 31 33 18 0 0 0 12 203 365 338 380 499 507
34 840 910 971 657 424 314 388 333 129 136 237 154 126 116 18 0 0 0 0 1 2 2 164 88 35 0 0 21 34 23 24 25 0 0 0 0 33 155 319 334 412 504
91 750 958 814 539 131 0 4 45 33 1 3 5 1 0 0 0 0 0 0 0 0 3 277 154 110 17 11 30 41 10 0 0 0 0 2 3 1 20 160 312 362 429
19 574 828 657 382 107 0 0 0 0 0 0 0 0 1 0 2 2 3 0 0 1 52 278 196 121 32 23 38 23 8 0 0 0 0 0 12 25 2 2 134 276 384
0 358 667 474 246 1 0 0 0 0 0 0 0 2 1 6 7 19 2 0 4 8 28 158 150 28 20 31 0 23 3 0 0 0 0 0 0 36 164 4 0 229 264
6 253 373 140 0 0 0 0 0 0 0 0 5 20 15 6 15 3 0 0 0 3 5 5 4 0 0 0 0 0 0 0 0 0 0 0 0 0 21 44 13 1 269
95 180 177 2 0 0 1 3 16 23 88 160 79 105 3 2 6 2 0 0 0 0 0 0 0 0 0 0 0 0 0 0 0 0 0 0 0 0 0 1 38 14 63
102 66 35 3 0 0 18 98 258 339 269 188 119 5 1 2 2 1 0 0 0 0 0 0 0 0 0 0 0 0 0 0 0 0 0 0 0 0 0 0 1 75 31
8 0 0 19 15 40 133 521 643 566 429 121 0 0 0 0 0 0 0 0 0 0 0 0 0 0 0 0 0 0 0 0 0 0 0 0 0 0 0 0 0 1 4
0 0 0 1 1 84 223 722 688 509 80 0 0 0 0 0 0 0 0 0 0 0 0 0 0 0 0 0 0 0 0 0 0 0 0 0 0 0 0 0 0 0 0
0 0 0 0 3 242 671 523 514 298 0 0 0 0 0 0 0 0 0 0 0 0 0 0 0 0 0 0 0 0 0 0 0 0 0 0 0 0 0 0 0 0 0
0 0 0 0 53 317 358 256 264 0 0 0 0 0 0 0 0 0 0 0 0 0 0 0 0 0 0 0 0 0 0 0 0 0 0 0 0 1 0 0 0 0 0
0 0 0 0 207 384 200 136 96 0 0 0 0 0 0 0 0 0 0 0 0 0 0 0 0 0 0 0 0 0 0 0 0 0 0 0 0 0 2 2 4 4 1
0 0 0 69 264 422 90 93 133 0 0 0 0 0 0 0 0 0 0 0 0 0 0 0 0 0 0 0 0 0 0 0 0 0 0 0 0 0 0 0 0 0 0
0 0 0 150 318 427 151 44 0 0 0 0 0 0 0 0 0 0 0 0 0 0 0 0 0 0 0 0 0 0 0 0 0 0 0 0 0 0 0 0 0 0 0
56 1 0 163 405 407 149 0 0 0 0 0 0 0 0 0 0 0 0 0 0 0 0 0 0 0 0 0 0 0 0 0 0 0 0 0 0 0 0 0 0 0 0
101 61 49 290 325 153 2 0 0 0 0 0 0 0 0 0 0 0 0 0 0 0 0 0 0 0 0 0 0 0 0 0 0 0 0 0 0 0 0 0 0 0 0
128 132 265 323 163 1 0 0 0 0 0 0 0 0 0 0 0 0 0 0 0 0 0 0 0 0 0 0 0 0 0 0 0 0 0 0 0 0 0 0 0 0 0
125 325 470 329 73 0 0 0 0 0 0 0 0 0 0 0 0 0 0 0 0 0 0 0 0 0 0 0 0 0 0 0 0 0 0 0 0 0 0 0 0 0 0
227 589 516 352 38 0 0 0 0 0 0 0 0 0 0 0 0 0 0 0 0 0 0 0 0 0 0 0 0 0 0 0 0 0 0 0 0 0 0 0 0 0 0
431 637 596 301 26 0 0 0 0 0 0 0 0 0 0 0 0 0 0 0 0 0 0 0 0 0 0 0 0 0 0 0 0 0 0 0 0 0 0 0 0 0 0
270 1031 775 331 117 19 0 0 0 0 0 0 0 0 0 0 0 0 0 0 0 0 0 0 0 0 0 0 0 0 0 0 0 0 0 0 0 0 0 0 0 0 0
564 1031 541 74 22 1 0 0 0 0 0 0 0 0 0 0 0 0 0 0 0 0 0 0 0 0 0 0 0 0 0 0 0 0 0 0 0 0 0 0 0 0 0
512 473 226 30 54 0 0 0 0 0 0 0 0 0 0 0 0 0 0 0 0 0 0 0 0 0 0 0 0 0 0 0 0 0 0 0 0 0 0 0 0 0 0
493 820 373 363 145 52 2 0 0 0 0 0 0 0 0 0 0 0 0 0 0 0 0 0 0 0 0 0 0 0 0 0 0 0 0 0 0 0 0 0 0 0 0

GFSSE_con_mlcape_102.txt.gz
CAPE
15 482 416 1065 923 851 821 838 770 708 693 593 528 510 440 348 196 59 21 1 2 9 179 1 0 15 34 37 43 24 3 0 0 0 4 140 206 343 426 472 379 403 498
62 662 1210 949 833 774 761 715 739 638 567 556 462 394 331 118 83 30 6 2 0 2 178 3 0 10 41 45 34 52 26 2 0 0 0 0 175 259 347 396 421 482 589
187 978 1119 976 600 430 651 718 499 571 492 446 227 134 25 3 1 3 4 1 2 3 171 23 1 5 45 56 27 26 27 2 0 0 0 0 5 302 326 252 430 532 467
495 969 1060 863 613 444 557 354 175 243 273 38 5 2 0 0 0 1 1 1 5 91 173 121 45 29 37 22 33 0 0 0 0 0 0 0 0 3 139 202 301 387 378
740 731 980 790 224 125 137 114 42 20 8 3 0 0 1 0 2 1 1 1 7 255 219 186 58 46 0 36 1 0 0 0 0 0 0 3 42 0 1 103 246 332 390
533 706 997 548 55 8 0 1 0 0 0 0 1 2 3 14 5 3 7 7 6 151 130 85 58 16 0 31 0 0 0 0 0 0 0 0 3 30 3 1 230 222 291
496 719 805 538 55 0 0 0 0 0 0 2 2 6 236 28 5 4 5 8 4 10 6 3 0 0 0 0 0 0 0 0 0 0 0 0 0 4 24 12 4 95 262
433 523 474 205 0 0 0 0 0 1 4 18 203 39 8 17 6 2 0 2 2 2 0 0 0 0 0 0 0 0 0 0 0 0 0 0 0 0 6 74 12 8 4
346 246 83 0 0 10 28 85 206 286 466 361 147 11 4 2 4 0 0 0 0 0 0 0 0 0 0 0 0 0 0 0 0 0 0 0 0 0 0 5 8 21 17
97 37 0 0 4 52 189 442 697 653 519 324 35 4 4 2 0 0 0 0 0 0 0 0 0 0 0 0 0 0 0 0 0 0 0 0 0 0 0 0 2 3 4
34 1 0 0 22 137 532 775 761 755 461 123 1 0 0 0 0 0 0 0 0 0 0 0 0 0 0 0 0 0 0 0 0 0 0 0 0 0 0 0 0 0 1
22 0 0 0 26 306 846 690 425 350 30 0 0 0 0 0 0 0 0 0 0 0 0 0 0 0 0 0 0 0 0 0 0 0 0 1 0 0 0 0 0 0 0
0 0 0 0 107 447 602 486 112 0 0 0 0 0 0 0 0 0 0 0 0 0 0 0 0 0 0 0 0 0 0 0 0 0 0 1 0 0 4 8 5 2 2
0 0 0 0 239 573 529 305 20 0 0 0 0 0 0 0 0 0 0 0 0 0 0 0 0 0 0 0 0 0 0 0 0 0 0 0 0 3 3 0 0 0 1
0 0 0 11 352 490 322 151 0 0 0 0 0 0 0 0 0 0 0 0 0 0 0 0 0 0 0 0 0 0 0 0 0 0 0 0 0 0 0 0 0 0 0
4 2 3 96 396 407 193 64 0 0 0 0 0 0 0 0 0 0 0 0 0 0 0 0 0 0 0 0 0 0 0 0 0 0 0 0 0 0 0 0 0 0 0
6 1 16 235 466 353 142 31 0 0 0 0 0 0 0 0 0 0 0 0 0 0 0 0 0 0 0 0 0 0 0 0 0 0 0 0 0 0 0 0 0 0 0
9 3 56 356 521 402 40 0 0 0 0 0 0 0 0 0 0 0 0 0 0 0 0 0 0 0 0 0 0 0 0 0 0 0 0 0 0 0 0 0 0 0 0
4 3 118 329 393 161 0 0 0 0 0 0 0 0 0 0 0 0 0 0 0 0 0 0 0 0 0 0 0 0 0 0 0 0 0 0 0 0 0 0 0 0 0
8 29 196 207 130 59 0 0 0 0 0 0 0 0 0 0 0 0 0 0 0 0 0 0 0 0 0 0 0 0 0 0 0 0 0 0 0 0 0 0 0 0 0
68 152 212 146 35 0 0 0 0 0 0 0 0 0 0 0 0 0 0 0 0 0 0 0 0 0 0 0 0 0 0 0 0 0 0 0 0 0 0 0 0 0 0
206 221 295 213 16 0 0 0 0 0 0 0 0 0 0 0 0 0 0 0 0 0 0 0 0 0 0 0 0 0 0 0 0 0 0 0 0 0 0 0 0 0 0
373 393 274 71 2 0 0 0 0 0 0 0 0 0 0 0 0 0 0 0 0 0 0 0 0 0 0 0 0 0 0 0 0 0 0 0 0 0 0 0 0 0 0
635 665 267 3 0 0 0 0 0 0 0 0 0 0 0 0 0 0 0 0 0 0 0 0 0 0 0 0 0 0 0 0 0 0 0 0 0 0 0 0 0 0 0
275 532 126 11 1 0 0 0 0 0 0 0 0 0 0 0 0 0 0 0 0 0 0 0 0 0 0 0 0 0 0 0 0 0 0 0 0 0 0 0 0 0 0
532 497 131 79 11 0 0 0 0 0 0 0 0 0 0 0 0 0 0 0 0 0 0 0 0 0 0 0 0 0 0 0 0 0 0 0 0 0 0 0 0 0 0

GFSSE_con_mlcape_105.txt.gz
CAPE
0 43 744 564 964 1060 987 944 920 804 847 755 659 540 523 355 80 32 0 1 185 0 0 12 42 55 73 44 33 6 0 0 0 0 119 203 274 417 358 373 367 306 260
0 426 638 942 835 877 928 897 885 833 706 553 549 473 226 6 6 6 2 0 69 39 3 14 50 67 37 60 36 2 0 0 0 0 0 16 238 351 426 327 353 333 381
166 167 1233 949 866 895 841 789 769 751 724 564 471 202 6 8 8 4 2 1 65 55 11 31 49 43 48 22 18 1 0 0 0 0 0 0 28 409 427 332 417 447 306
127 1062 980 812 665 882 949 643 683 638 487 288 92 6 6 2 2 1 0 1 185 92 31 34 17 15 38 0 0 0 0 0 0 0 0 0 0 131 222 438 420 430 406
861 1111 856 861 547 474 696 328 315 450 47 6 3 2 3 2 0 1 3 48 149 116 55 15 1 55 3 0 0 0 0 0 0 0 0 0 0 1 224 314 378 362 447
975 931 965 785 430 663 544 214 90 17 7 1 2 2 3 6 6 5 5 227 189 133 64 6 0 58 6 0 0 0 0 0 0 0 0 0 11 5 11 88 334 386 374
681 903 852 376 137 101 48 4 4 2 1 2 4 4 14 9 4 108 74 10 82 77 8 2 0 22 0 0 0 0 0 0 0 0 0 0 7 235 10 17 12 333 291
578 868 650 198 116 16 1 1 1 1 2 3 171 334 47 7 5 14 7 12 5 1 1 0 0 0 0 0 0 0 0 0 0 0 0 0 3 18 131 24 20 8 81
565 558 500 94 10 0 0 1 1 2 23 321 180 63 26 3 4 4 3 2 0 0 0 0 0 0 0 0 0 0 0 0 0 0 0 0 0 2 5 13 12 20 11
414 259 63 0 0 1 5 60 94 387 518 332 79 46 5 3 4 0 0 0 0 0 0 0 0 0 0 0 0 0 0 0 0 0 0 0 0 0 0 1 7 7 18
203 118 2 0 1 36 143 481 625 624 488 178 49 5 2 0 0 0 0 0 0 0 0 0 0 0 0 0 0 0 0 0 0 0 0 0 1 1 1 0 0 3 7
94 49 0 0 7 124 470 628 616 579 169 0 0 0 0 0 0 0 0 0 0 0 0 0 0 0 0 0 0 0 0 0 0 0 0 0 4 6 5 3 3 3 5
38 30 5 4 50 328 585 474 305 33 0 0 0 0 0 0 0 0 0 0 0 0 0 0 0 0 0 0 0 0 0 0 0 0 2 6 11 6 0 0 0 2 0
78 50 10 12 145 579 553 333 121 0 0 0 0 0 0 0 0 0 0 0 0 0 0 0 0 0 0 0 0 0 0 0 0 0 0 0 0 0 0 0 0 0 0
40 19 2 40 231 593 496 211 11 0 0 0 0 0 0 0 0 0 0 0 0 0 0 0 0 0 0 0 0 0 0 0 0 0 0 0 0 0 0 0 0 0 0
18 0 0 23 323 583 388 211 0 0 0 0 0 0 0 0 0 0 0 0 0 0 0 0 0 0 0 0 0 0 0 0 0 0 0 0 0 0 0 0 0 0 0
22 0 0 10 383 569 329 178 0 0 0 0 0 0 0 0 0 0 0 0 0 0 0 0 0 0 0 0 0 0 0 0 0 0 0 0 0 0 0 0 0 0 0
1 0 0 17 424 536 238 96 0 0 0 0 0 0 0 0 0 0 0 0 0 0 0 0 0 0 0 0 0 0 0 0 0 0 0 0 0 0 0 0 0 0 0
10 0 0 53 368 437 168 16 0 0 0 0 0 0 0 0 0 0 0 0 0 0 0 0 0 0 0 0 0 0 0 0 0 0 0 0 0 0 0 0 0 0 0
0 0 0 111 469 467 44 0 0 0 0 0 0 0 0 0 0 0 0 0 0 0 0 0 0 0 0 0 0 0 0 0 0 0 0 0 0 0 0 0 0 0 0
4 0 0 144 429 232 33 0 0 0 0 0 0 0 0 0 0 0 0 0 0 0 0 0 0 0 0 0 0 0 0 0 0 0 0 0 0 0 0 0 0 0 0
32 12 21 98 164 93 0 0 0 0 0 0 0 0 0 0 0 0 0 0 0 0 0 0 0 0 0 0 0 0 0 0 0 0 0 0 0 0 0 0 0 0 0
90 72 83 117 70 0 0 0 0 0 0 0 0 0 0 0 0 0 0 0 0 0 0 0 0 0 0 0 0 0 0 0 0 0 0 0 0 0 0 0 0 0 0
140 192 146 70 0 0 0 0 0 0 0 0 0 0 0 0 0 0 0 0 0 0 0 0 0 0 0 0 0 0 0 0 0 0 0 0 0 0 0 0 0 0 0
386 304 103 7 2 1 0 0 0 0 0 0 0 0 0 0 0 0 0 0 0 0 0 0 0 0 0 0 0 0 0 0 0 0 0 0 0 0 0 0 0 0 0
573 381 166 60 19 2 1 1 0 0 0 0 0 0 0 0 0 0 0 0 0 0 0 0 0 0 0 0 0 0 0 0 0 0 0 0 0 0 0 0 0 0 0

GFSSE_con_mlcape_108.txt.gz
CAPE
0 0 1444 1120 1185 1193 1135 1015 973 853 813 681 578 494 378 41 16 2 74 59 0 0 30 36 58 141 44 11 4 2 4 4 19 22 255 225 342 403 369 364 315 241 193
0 661 1192 1105 1163 1143 1050 1041 911 862 813 690 619 418 10 8 5 0 1 174 1 1 16 46 54 41 24 7 6 4 2 0 0 0 0 129 180 421 355 417 336 432 326
0 721 820 1151 1113 1092 1007 970 933 865 762 631 539 238 4 5 4 1 0 152 6 2 45 25 56 19 1 1 6 8 4 3 0 0 0 0 250 329 424 371 486 552 433
1 445 1222 1188 961 1049 1009 1040 886 813 753 515 118 4 6 3 2 0 0 165 52 29 28 4 56 2 0 0 0 2 0 0 0 0 0 0 81 281 322 390 515 493 443
65 920 1122 1097 975 1040 969 908 786 677 417 70 4 4 3 3 1 1 25 137 100 17 4 34 20 1 0 0 0 0 0 0 0 0 0 0 0 85 317 343 359 459 534
614 983 1225 924 907 986 809 881 644 89 2 4 1 2 5 4 6 7 279 160 119 26 8 103 29 1 0 0 0 0 0 0 0 0 0 11 0 15 65 265 302 321 363
869 907 929 912 1040 873 575 112 123 98 3 1 2 7 8 6 20 2 137 170 118 22 7 54 20 1 0 0 0 0 0 0 0 0 0 8 70 21 10 11 40 187 200
814 895 864 615 537 589 300 61 22 4 3 3 3 15 19 50 94 50 58 14 8 7 1 1 10 0 0 0 0 0 0 0 0 0 0 0 26 27 20 14 13 27 149
868 599 432 236 153 123 28 5 3 3 1 54 179 100 49 15 12 4 7 7 4 0 0 1 2 0 0 0 0 0 0 0 0 0 0 0 4 7 4 12 23 51 41
537 402 114 79 15 0 0 2 1 1 46 332 247 47 20 7 9 4 1 0 0 0 0 0 0 0 0 0 0 0 0 0 0 0 0 2 4 4 7 7 8 15 29
367 292 66 0 0 0 0 1 17 191 242 121 37 12 7 0 0 0 0 0 0 0 0 0 0 0 0 0 0 0 0 0 0 0 0 4 4 4 4 7 4 7 12
305 155 7 0 1 3 53 223 307 443 191 9 0 0 0 0 0 0 0 0 0 0 0 0 0 0 0 0 0 0 0 0 0 0 4 7 3 2 4 3 1 1 3
129 138 7 0 11 41 224 366 339 95 0 0 0 0 0 0 0 0 0 0 0 0 0 0 0 0 0 0 0 0 0 0 0 0 1 0 0 2 2 0 0 0 0
71 87 38 12 29 185 373 314 127 6 0 0 0 0 0 0 0 0 0 0 0 0 0 0 0 0 0 0 0 0 0 0 0 0 0 0 0 0 0 0 0 0 0
182 94 62 23 49 303 492 196 84 12 0 0 0 0 0 0 0 0 0 0 0 0 0 0 0 0 0 0 0 0 0 0 0 0 0 0 0 0 0 0 0 0 0
210 144 76 7 41 395 610 208 47 0 0 0 0 0 0 0 0 0 0 0 0 0 0 0 0 0 0 0 0 0 0 0 0 0 0 0 0 0 0 0 0 0 0
300 217 109 23 68 433 539 215 17 0 0 0 0 0 0 0 0 0 0 0 0 0 0 0 0 0 0 0 0 0 0 0 0 0 0 0 0 0 0 0 0 0 0
239 179 81 19 57 336 495 195 7 0 0 0 0 0 0 0 0 0 0 0 0 0 0 0 0 0 0 0 0 0 0 0 0 0 0 0 0 0 0 0 0 0 0
100 22 13 0 26 172 418 228 11 0 0 0 0 0 0 0 0 0 0 0 0 0 0 0 0 0 0 0 0 0 0 0 0 0 0 0 0 0 0 0 0 0 0
57 15 3 1 44 165 247 40 0 0 0 0 0 0 0 0 0 0 0 0 0 0 0 0 0 0 0 0 0 0 0 0 0 0 0 0 0 0 0 0 0 0 0
42 17 1 0 79 131 82 37 0 0 0 0 0 0 0 0 0 0 0 0 0 0 0 0 0 0 0 0 0 0 0 0 0 0 0 0 0 0 0 0 0 0 0
56 23 13 5 87 83 91 26 0 0 0 0 0 0 0 0 0 0 0 0 0 0 0 0 0 0 0 0 0 0 0 0 0 0 0 0 0 0 0 0 0 0 0
156 30 26 34 45 50 40 0 0 0 0 0 0 0 0 0 0 0 0 0 0 0 0 0 0 0 0 0 0 0 0 0 0 0 0 0 0 0 0 0 0 0 0
265 67 41 57 29 16 0 0 0 0 0 0 0 0 0 0 0 0 0 0 0 0 0 0 0 0 0 0 0 0 0 0 0 0 0 0 0 0 0 0 0 0 0
258 212 128 98 42 1 0 0 0 0 0 0 0 0 0 0 0 0 0 0 0 0 0 0 0 0 0 0 0 0 0 0 0 0 0 0 0 0 0 0 0 0 0
289 249 136 57 20 2 4 1 0 0 1 0 0 2 0 0 0 0 0 0 0 0 0 0 0 0 0 0 0 0 0 0 0 0 0 0 0 0 0 0 0 0 0

GFSSE_con_mlcape_114.txt.gz
CAPE
0 127 1183 1451 1285 1327 1126 714 514 305 380 708 747 208 69 247 19 0 0 59 84 206 153 47 5 3 3 5 17 54 130 181 280 332 299 434 441 593 491 304 220 236 465
0 465 1517 1431 1485 1357 1288 1174 967 488 770 663 494 93 0 2 244 0 0 13 123 126 32 6 3 7 5 3 4 4 19 47 57 237 286 267 363 539 480 329 404 303 523
0 969 1454 1446 1386 1325 1433 1241 1074 921 753 697 296 76 5 0 221 4 0 36 120 72 3 0 0 7 6 6 4 2 0 0 0 57 155 195 358 586 582 436 453 486 362
0 696 1286 1462 1296 1260 1314 1097 1067 887 733 430 86 9 1 0 0 258 7 88 30 78 2 0 0 0 5 8 9 3 0 0 0 58 95 127 226 390 434 506 550 535 451
86 787 689 1368 1255 1332 1200 1203 1032 835 771 334 25 0 0 0 0 383 149 74 96 69 6 1 0 0 0 0 0 0 0 0 0 2 21 149 222 290 446 464 375 430 411
915 983 1347 1324 1282 1184 1282 1142 1041 742 249 70 0 0 0 0 0 306 135 1 178 62 5 0 0 0 0 0 0 0 0 0 62 16 5 8 109 269 323 303 307 303 248
456 400 1163 1362 1356 1356 1135 1105 927 559 109 28 0 0 0 0 430 276 60 4 143 26 5 1 0 0 0 0 0 0 0 0 30 12 12 24 47 213 214 222 231 225 209
192 163 772 1030 1204 1199 1262 1043 628 254 61 2 0 0 0 332 349 200 47 54 104 25 2 0 0 0 0 0 0 0 0 0 16 7 14 26 28 48 87 112 211 190 179
306 827 979 1069 974 1027 895 839 354 70 14 1 0 0 22 292 226 150 30 1 82 6 0 0 0 0 0 0 0 0 0 0 1 5 9 29 27 28 20 14 71 108 129
469 771 900 1001 844 815 606 580 218 61 6 6 2 346 243 145 39 13 13 3 8 1 0 0 0 0 0 0 0 0 0 0 0 2 10 14 7 4 12 15 15 16 23
834 921 918 992 749 563 275 192 69 13 8 45 65 96 14 47 8 12 14 1 9 0 0 0 0 0 0 0 0 0 0 0 0 0 10 9 6 6 6 4 6 8 14
910 870 815 688 383 250 7 1 0 0 73 193 54 19 16 10 21 3 1 0 9 0 0 0 0 0 0 0 0 0 0 0 0 1 5 4 1 1 0 0 0 0 2
892 894 742 577 305 4 0 0 0 3 372 184 83 20 3 4 0 0 0 0 6 0 0 0 0 0 0 0 0 0 0 0 0 1 3 0 0 0 0 0 0 0 0
819 815 672 542 250 0 0 0 34 541 304 129 30 5 0 0 0 0 0 0 0 0 0 0 0 0 0 0 0 0 0 0 0 0 0 0 0 0 0 0 0 0 0
711 718 746 636 250 0 0 11 596 144 150 69 53 1 0 0 0 0 0 0 0 0 0 0 0 0 0 0 0 0 0 0 0 0 0 0 0 0 0 0 0 0 0
843 696 895 594 236 0 0 357 395 209 101 142 7 0 0 0 0 0 0 0 0 0 0 0 0 0 0 0 0 0 0 0 0 0 0 0 0 0 0 0 0 0 0
840 766 778 466 227 0 1 444 407 120 63 53 0 0 0 0 0 0 0 0 0 0 0 0 0 0 0 0 0 0 0 0 0 0 0 0 0 0 0 0 0 0 0
953 803 569 418 179 2 49 537 455 119 121 66 0 0 0 0 0 0 0 0 0 0 0 0 0 0 0 0 0 0 0 0 0 0 0 0 0 0 0 0 0 0 0
1085 614 472 601 240 20 174 547 476 289 225 28 0 0 0 0 0 0 0 0 0 0 0 0 0 0 0 0 0 0 0 0 0 0 0 0 0 0 0 0 0 0 0
1331 1038 920 800 362 95 446 398 323 372 167 1 0 0 0 0 0 0 0 0 0 0 0 0 0 0 0 0 0 0 0 0 0 0 0 0 0 0 0 0 0 0 0
1193 1009 949 803 471 214 257 101 110 105 81 10 0 0 0 0 0 0 0 0 0 0 0 0 0 0 0 0 0 0 0 0 0 0 0 0 0 0 0 0 0 0 0
1295 1151 1009 803 606 325 214 117 120 2 12 10 1 0 0 0 0 0 0 0 0 0 0 0 0 0 0 0 0 0 0 0 0 0 0 0 0 0 0 0 0 0 0
1165 1120 1136 976 740 541 228 21 9 0 1 0 0 0 0 0 0 0 0 0 0 0 0 0 0 0 0 0 0 0 0 0 0 0 0 0 0 0 0 0 0 0 0
961 1065 1055 877 742 605 212 44 13 8 0 1 0 0 0 0 0 0 0 0 0 0 0 0 0 0 0 0 0 0 0 0 0 0 0 0 0 0 0 0 0 0 0
843 979 796 422 336 186 18 0 1 4 0 4 0 0 0 0 0 0 0 0 0 0 0 0 0 0 0 0 0 0 0 0 0 0 0 0 0 0 0 0 0 0 0
858 855 764 437 287 124 32 5 0 0 0 2 7 6 3 3 1 0 0 0 0 0 0 0 0 0 0 0 0 0 0 0 0 0 0 0 0 0 0 0 0 0 0

GFSSE_con_mlcape_117.txt.gz
CAPE
0 7 1265 1411 1551 1355 1101 901 542 577 843 921 591 459 380 7 0 0 116 282 216 175 3 1 3 5 9 21 104 152 281 422 458 360 230 332 430 536 369 294 295 287 326
0 511 1760 1602 1600 1276 1002 706 563 632 958 855 343 146 279 63 0 0 102 306 182 15 0 2 5 3 4 7 36 107 109 177 177 207 322 309 350 463 456 320 372 420 335
0 716 1444 1503 1466 1382 1212 1011 662 1033 921 661 225 61 2 366 11 0 102 287 110 5 2 4 4 4 5 3 1 5 3 25 184 157 165 227 379 588 602 327 322 466 311
65 767 1278 1593 1539 1393 1323 1218 1091 986 848 562 212 40 0 145 114 25 149 242 58 6 3 1 2 6 8 8 2 0 0 0 121 170 250 207 306 463 547 514 471 371 340
408 870 1395 1605 1475 1351 1273 1252 1066 932 789 328 119 8 0 0 370 152 119 247 86 5 3 0 0 0 1 6 3 0 33 16 26 51 128 205 307 335 428 463 297 183 189
518 660 1466 1485 1376 1369 1393 1223 1158 900 740 192 39 1 0 0 356 200 113 214 57 3 0 0 0 0 0 0 0 0 43 10 9 28 74 196 246 346 352 343 186 69 51
845 924 1448 1295 1497 1504 1230 1182 1061 825 362 118 2 0 0 1 425 172 24 251 76 5 2 0 0 0 0 0 0 0 8 13 14 12 25 74 128 257 300 319 299 287 39
839 1132 1259 1333 1397 1326 1368 1219 1021 543 218 28 1 0 1 507 262 157 162 135 35 3 0 0 0 0 0 0 0 0 0 16 5 7 21 31 34 102 182 251 249 237 223
467 365 800 972 926 1308 1186 1040 791 392 96 18 0 0 362 403 221 149 163 113 42 0 0 0 0 0 0 0 0 0 0 0 3 16 15 18 27 17 66 149 145 119 112
365 348 705 974 922 842 824 657 530 211 29 8 6 52 402 192 186 79 1 95 11 0 0 0 0 0 0 0 0 0 0 0 2 0 4 8 8 3 11 18 22 20 24
413 711 931 960 679 609 532 566 387 98 0 22 87 101 28 73 32 21 12 54 3 0 0 0 0 0 0 0 0 0 0 0 1 0 6 10 7 5 6 4 7 9 12
483 549 949 1009 709 412 389 437 55 6 0 11 81 19 102 7 12 23 0 30 0 0 0 0 0 0 0 0 0 0 0 1 0 1 4 5 1 1 0 0 0 0 0
825 848 1065 1223 974 425 107 46 0 0 1 131 93 20 12 13 0 0 0 16 0 0 0 0 0 0 0 0 0 1 0 1 0 0 2 1 0 1 0 0 0 0 0
273 457 1198 902 902 197 15 1 0 0 283 384 129 18 3 3 0 1 0 7 1 0 0 0 0 0 0 0 0 0 0 0 0 0 1 4 2 1 0 0 0 0 0
874 1050 1137 816 385 88 5 0 1 416 523 266 90 4 3 0 0 0 0 0 0 0 0 0 0 0 0 0 0 0 0 0 0 0 0 0 0 0 0 0 0 0 0
800 820 913 622 589 64 1 0 162 568 363 169 41 2 0 0 0 0 0 0 0 0 0 0 0 0 0 0 0 0 0 0 0 0 0 0 0 0 0 0 0 0 0
1064 848 875 693 311 99 0 10 481 548 372 273 82 0 0 0 0 0 0 0 0 0 0 0 0 0 0 0 0 0 0 0 0 0 0 0 0 0 0 0 0 0 0
1088 886 727 946 259 144 3 418 527 525 274 245 59 0 0 0 0 0 0 0 0 0 0 0 0 0 0 0 0 0 0 0 0 0 0 0 0 0 0 0 0 0 0
1192 852 641 747 276 189 11 453 444 414 260 217 7 0 0 0 0 0 0 0 0 0 0 0 0 0 0 0 0 0 0 0 0 0 0 0 0 0 0 0 0 0 0
1229 593 492 525 386 257 47 425 345 413 231 228 0 0 0 0 0 0 0 0 0 0 0 0 0 0 0 0 0 0 0 0 0 0 0 0 0 0 0 0 0 0 0
898 378 0 392 508 244 229 318 409 314 238 68 0 0 0 0 0 0 0 0 0 0 0 0 0 0 0 0 0 0 0 0 0 0 0 0 0 0 0 0 0 0 0
1148 632 486 478 588 422 478 338 192 180 172 11 2 0 0 0 0 0 0 0 0 0 0 0 0 0 0 0 0 0 0 0 0 0 0 0 0 0 0 0 0 0 0
940 1035 683 221 862 476 617 168 7 0 0 0 0 0 0 0 0 0 0 0 0 0 0 0 0 0 0 0 0 0 0 0 0 0 0 0 0 0 0 0 0 0 0
476 977 873 744 749 631 362 4 2 4 0 1 0 0 0 0 0 0 0 0 0 0 0 0 0 0 0 0 0 0 0 0 0 0 0 0 0 0 0 0 0 0 0
235 564 1088 419 104 389 125 20 54 23 0 0 0 0 0 0 0 0 0 0 0 0 0 0 0 0 0 0 0 0 0 0 0 0 0 0 0 0 0 0 0 0 0
411 845 683 76 47 82 0 5 0 0 0 0 3 3 3 1 0 0 0 0 0 0 0 0 0 0 0 0 0 0 0 0 0 0 0 0 0 0 0 0 0 0 0

GFSSE_con_mlcape_120.txt.gz
CAPE
343 522 1611 1101 1671 1379 1325 1290 1188 988 996 967 776 237 0 0 62 72 300 207 75 3 4 5 10 7 86 191 196 344 258 271 313 242 191 258 372 404 340 365 125 0 17
112 879 1704 1296 1799 1435 1282 994 1044 1135 1029 642 611 313 3 0 17 120 249 120 1 1 5 6 6 10 6 38 147 147 287 116 99 198 225 257 285 402 329 215 214 98 115
65 1347 1763 1802 1593 1356 1149 847 1038 1077 821 439 159 162 105 1 4 213 194 13 1 2 2 4 10 10 5 0 0 51 191 124 137 217 246 270 291 409 445 275 248 107 115
616 1661 1684 1826 1580 1436 1180 976 1128 1018 767 355 67 0 393 47 29 174 228 10 3 2 2 4 6 8 3 0 2 86 110 106 108 117 146 191 297 434 428 316 285 205 170
752 1406 1666 1790 1577 1408 1287 1022 1042 992 791 370 86 0 31 231 145 168 251 29 5 3 1 1 1 4 0 0 35 43 9 136 93 71 102 205 273 338 118 59 29 64 178
863 1362 1635 1749 1622 1379 1342 1298 1192 968 603 287 33 0 0 233 317 183 181 53 2 1 0 0 0 0 0 0 4 12 8 5 0 0 10 80 214 287 330 118 90 193 162
1136 1729 1521 1614 1594 1483 1384 1203 1168 1000 496 170 2 0 0 61 235 172 162 14 6 2 0 0 0 0 0 0 0 0 6 0 0 0 0 27 91 258 283 289 269 65 21
1539 1717 1545 1594 1580 1399 1402 1290 1132 832 385 60 0 0 0 420 196 124 107 76 5 1 0 0 0 0 0 0 0 1 18 12 0 0 0 10 66 188 166 186 230 266 266
1236 1606 1377 1562 1420 1375 1305 1205 970 639 186 13 0 0 512 397 206 78 125 28 1 0 0 0 0 0 0 0 0 0 1 0 0 0 1 2 33 31 22 84 99 187 191
1226 1251 1053 1261 1197 1214 1108 794 693 428 85 0 0 281 388 126 113 96 95 7 0 0 0 0 0 0 0 0 0 0 3 0 0 0 1 6 20 22 17 14 22 35 81
329 716 654 796 953 1017 855 648 455 258 24 1 13 294 60 22 18 8 19 1 0 0 0 0 0 0 0 0 0 0 0 0 0 0 5 12 8 10 5 5 4 2 2
434 566 1022 934 893 824 735 462 252 55 3 0 132 22 38 5 0 5 5 0 0 0 0 0 0 0 0 0 0 0 0 0 0 0 4 7 4 3 3 1 1 1 0
706 928 1152 952 753 612 675 395 199 1 0 3 55 26 28 2 0 5 0 0 0 0 0 0 0 0 0 0 0 0 0 0 0 0 4 3 1 1 0 0 0 0 0
844 948 1031 921 695 572 640 146 0 0 0 15 37 32 2 0 0 0 0 0 0 0 0 0 0 0 0 0 0 0 0 0 0 0 3 5 2 1 0 0 0 0 0
560 592 1127 937 1005 739 24 0 0 1 8 11 79 1 1 0 0 0 0 0 0 0 0 0 0 0 0 0 0 0 0 0 0 0 1 3 1 1 0 0 0 0 0
692 585 646 924 749 425 3 0 158 452 324 101 49 1 0 0 0 0 0 0 0 0 0 0 0 0 0 0 0 0 0 0 0 0 0 0 0 0 0 0 0 0 0
1015 1104 690 615 601 201 3 0 524 429 257 120 10 1 0 0 0 0 0 0 0 0 0 0 0 0 0 0 0 0 0 0 0 0 0 0 0 0 0 0 0 0 0
1159 855 454 221 124 319 2 205 506 330 246 135 5 1 0 0 0 0 0 0 0 0 0 0 0 0 0 0 0 0 0 0 0 0 0 0 0 0 0 0 0 0 0
1033 1037 770 328 249 300 16 464 431 416 383 247 15 0 0 0 0 0 0 0 0 0 0 0 0 0 0 0 0 0 0 0 0 0 0 0 0 0 0 0 0 0 0
1049 1117 1028 816 745 399 290 588 522 387 389 214 0 0 0 0 0 0 0 0 0 0 0 0 0 0 0 0 0 0 0 0 0 0 0 0 0 0 0 0 0 0 0
1608 1366 905 544 379 203 262 447 389 354 290 215 0 0 0 0 0 0 0 0 0 0 0 0 0 0 0 0 0 0 0 0 0 0 0 0 0 0 0 0 0 0 0
1063 935 583 450 127 0 238 361 259 354 250 91 0 0 0 0 0 0 0 0 0 0 0 0 0 0 0 0 0 0 0 0 0 0 0 0 0 0 0 0 0 0 0
680 1011 428 288 9 0 44 282 122 85 14 0 0 0 0 0 0 0 0 0 0 0 0 0 0 0 0 0 0 0 0 0 0 0 0 0 0 0 0 0 0 0 0
371 792 232 0 0 0 254 185 176 121 27 0 0 0 0 0 0 0 0 0 0 0 0 0 0 0 0 0 0 0 0 0 0 0 0 0 0 0 0 0 0 0 0
10 743 595 349 0 32 1 62 33 28 0 0 0 0 0 0 0 0 0 0 0 0 0 0 0 0 0 0 0 0 0 0 0 0 0 0 0 0 0 0 0 0 0
699 775 519 234 13 0 42 4 1 19 0 0 0 0 0 0 0 0 0 0 0 0 0 0 0 0 0 0 0 0 0 0 0 0 0 0 0 0 0 0 0 0 0

GFSSE_con_mlcape_123.txt.gz
CAPE
338 1313 1040 1693 1788 1615 1351 1304 1155 1121 920 611 74 0 3 30 394 176 155 2 6 9 15 6 16 52 206 232 308 133 162 260 273 254 268 261 330 310 98 250 43 42 231
390 1700 1032 1765 1605 1563 1480 1359 1269 1031 1009 658 147 0 0 25 212 242 18 2 3 6 11 6 11 4 78 140 260 174 200 261 295 341 219 234 298 275 134 141 236 64 130
829 1595 1266 1897 1583 1563 1460 1338 1252 984 800 698 188 2 0 22 288 127 2 2 2 4 8 9 8 11 46 146 141 220 220 237 218 161 166 157 194 280 261 222 248 168 112
1008 1747 1405 1914 1625 1512 1258 1348 1170 878 512 218 188 88 1 16 356 107 5 2 2 3 4 8 7 10 63 72 179 181 168 103 98 91 85 112 107 121 33 141 197 177 164
1187 1648 1796 1840 1493 1411 1313 1147 1097 873 478 87 6 303 10 129 277 91 6 2 0 1 1 2 6 11 41 28 47 79 65 10 0 0 58 78 39 22 65 66 76 95 145
1196 1556 2025 1744 1581 1429 1083 1175 1055 910 525 172 0 9 189 274 203 172 6 3 1 0 0 0 3 5 0 7 22 19 0 4 0 0 6 106 137 181 31 2 0 0 0
1473 1735 1923 1810 1619 1337 1249 1243 1033 877 471 135 0 0 103 398 196 156 6 3 1 0 0 0 0 0 1 0 14 21 0 0 0 2 9 30 66 148 165 165 135 14 2
1630 1803 1684 1845 1680 1497 1416 1205 1110 793 357 73 0 0 28 351 173 130 9 5 1 0 0 0 0 0 0 16 23 5 0 0 0 0 3 30 28 81 119 163 99 85 51
1806 1707 1681 1705 1591 1446 1352 1140 1025 706 265 27 0 0 467 303 150 132 7 1 0 0 0 0 0 0 0 14 3 1 0 0 0 0 2 15 34 33 36 40 43 42 40
1669 1462 1433 1638 1531 1415 1206 1060 877 557 191 0 0 410 448 171 38 86 4 1 0 0 0 0 0 0 0 0 0 0 0 0 0 0 2 17 16 16 17 17 17 25 21
1218 1424 1223 1214 1190 1236 1095 884 653 383 64 3 234 366 106 0 18 0 0 0 0 0 0 0 0 0 0 0 0 0 0 0 0 0 0 7 7 7 4 4 4 4 4
859 1027 1021 939 974 940 813 716 448 235 1 35 216 7 0 0 0 0 0 0 0 0 0 0 0 0 0 0 0 0 0 0 0 1 7 7 3 1 1 0 0 0 0
235 815 832 705 801 699 605 408 174 12 0 12 50 1 0 0 0 0 0 0 0 0 0 0 0 0 0 0 0 0 0 0 0 0 3 2 2 0 0 0 0 0 0
28 448 673 842 825 635 382 265 62 0 0 12 3 7 0 0 0 0 0 0 0 0 0 0 0 0 0 0 0 0 0 0 0 0 1 1 0 0 0 0 0 0 0
341 560 544 580 561 573 459 305 36 0 0 8 1 0 0 0 0 0 0 0 0 0 0 0 0 0 0 0 0 0 0 0 0 0 0 0 0 0 0 0 0 0 0
656 391 190 637 173 458 395 70 2 0 0 21 33 1 0 0 0 0 0 0 0 0 0 0 0 0 0 0 0 0 0 0 0 0 0 0 0 0 0 0 0 0 0
697 305 8 386 424 419 136 10 46 1 0 12 114 10 0 0 0 0 0 0 0 0 0 0 0 0 0 0 0 0 0 0 0 0 0 0 0 0 0 0 0 0 0
849 657 381 474 515 253 31 283 163 96 39 74 79 2 0 0 0 0 0 0 0 0 0 0 0 0 0 0 0 0 0 0 0 0 0 0 0 0 0 0 0 0 0
993 971 749 745 414 428 69 427 366 238 189 171 57 0 0 0 0 0 0 0 0 0 0 0 0 0 0 0 0 0 0 0 0 0 0 0 0 0 0 0 0 0 0
394 1023 847 628 63 153 288 307 320 213 242 187 32 0 0 0 0 0 0 0 0 0 0 0 0 0 0 0 0 0 0 0 0 0 0 0 0 0 0 0 0 0 0
930 978 956 579 126 107 213 226 206 244 226 200 7 0 0 0 0 0 0 0 0 0 0 0 0 0 0 0 0 0 0 0 0 0 0 0 0 0 0 0 0 0 0
802 944 776 690 439 109 47 1 154 170 189 101 0 0 0 0 0 0 0 0 0 0 0 0 0 0 0 0 0 0 0 0 0 0 0 0 0 0 0 0 0 0 0
388 871 768 466 222 142 0 8 0 48 90 16 0 0 0 0 0 0 0 0 0 0 0 0 0 0 0 0 0 0 0 0 0 0 0 0 0 0 0 0 0 0 0
72 761 592 316 192 11 0 6 0 49 30 0 0 0 0 0 0 0 0 0 0 0 0 0 0 0 0 0 0 0 0 0 0 0 0 0 0 0 0 0 0 0 0
35 692 482 195 115 0 0 0 16 62 0 0 0 0 0 0 0 0 0 0 0 0 0 0 0 0 0 0 0 0 0 0 0 0 0 0 0 0 0 0 0 0 0
763 780 524 216 36 0 0 0 0 0 1 0 0 0 0 0 0 0 0 0 0 0 0 0 0 0 0 0 0 0 0 0 0 0 0 0 0 0 0 0 0 0 0

GFSSE_con_mlcape_129.txt.gz
CAPE
0 546 1389 1785 1664 1181 1142 1430 1001 285 1 96 222 497 456 199 6 2 0 1 0 104 196 252 369 373 366 403 446 413 489 436 354 249 277 260 156 243 279 215 192 198 201
30 807 1673 1947 1797 1341 1306 1427 1043 364 4 54 256 566 422 146 5 2 2 3 0 1 7 100 240 274 440 345 291 324 282 309 241 115 82 148 166 206 215 175 217 205 251
29 1191 1775 2059 1767 1470 1599 1450 1069 433 22 16 95 650 453 51 7 2 5 6 7 13 88 132 304 313 351 303 314 296 200 157 46 0 5 45 135 145 187 157 170 235 203
162 1252 1926 2090 1811 1500 1593 1319 1129 555 64 7 2 294 283 19 5 5 6 7 7 20 80 92 342 259 205 140 177 134 117 60 6 5 1 6 25 87 158 213 177 137 147
439 1318 2026 1882 1808 1624 1507 1208 1157 753 140 21 9 483 278 28 3 6 6 8 7 11 68 38 216 124 89 93 92 90 90 8 7 4 0 0 3 17 90 79 130 142 88
955 1424 2246 1826 1805 1657 1367 1267 1264 895 252 88 45 635 364 33 2 5 4 6 7 13 22 25 38 41 48 59 44 43 18 4 5 10 25 41 18 10 6 8 15 86 67
1413 1380 2090 1569 1674 1649 1481 1353 1263 957 515 192 89 461 379 79 7 4 1 2 6 10 9 18 34 28 39 49 45 39 10 0 0 0 11 32 51 98 25 6 7 13 46
1627 1238 2001 1563 1566 1486 1515 1405 1168 742 639 486 150 446 396 170 6 4 0 0 4 14 20 16 34 23 6 6 27 13 1 0 0 0 1 34 51 34 42 50 17 11 27
1886 1176 1890 1412 1246 1300 1337 1343 1101 811 435 562 384 655 440 179 20 5 1 0 0 18 16 27 43 28 7 0 7 6 0 0 0 0 1 17 41 32 30 29 35 45 42
1224 1013 596 258 902 919 995 1287 1104 831 418 158 358 662 325 149 38 5 0 0 0 20 24 6 29 14 3 0 0 0 0 0 0 0 0 9 17 15 20 14 24 29 25
695 363 20 0 0 324 704 920 1060 841 522 108 140 530 243 124 10 1 0 0 0 10 31 2 10 3 0 0 0 0 0 0 0 0 1 6 8 7 4 4 4 3 4
572 257 66 0 0 0 483 622 599 606 347 38 345 347 199 11 0 0 0 0 0 1 29 1 7 0 0 0 0 0 0 0 0 0 3 6 5 4 2 3 3 2 1
387 118 29 53 0 0 13 407 433 281 193 205 337 206 84 0 0 0 0 0 0 0 10 0 0 0 0 0 0 0 0 0 0 0 5 6 4 4 2 2 1 1 1
14 44 0 9 0 0 4 291 297 278 204 210 256 149 30 0 0 0 0 0 0 0 0 0 0 0 0 0 0 0 0 0 0 0 2 2 4 3 1 0 0 0 0
3 0 0 0 2 19 119 190 239 244 149 249 139 82 14 0 0 0 0 0 0 0 0 0 0 0 0 0 0 0 0 0 0 0 1 2 1 0 0 0 0 0 0
13 0 1 0 65 1 0 107 192 215 189 284 113 70 1 0 0 0 0 0 0 0 0 0 0 0 0 0 0 0 0 0 0 0 0 1 1 0 0 0 0 0 0
1 1 7 0 58 0 19 5 54 98 250 289 129 42 0 0 0 0 0 0 0 0 0 0 0 0 0 0 0 0 0 0 0 0 0 0 0 0 0 0 0 0 0
0 166 81 127 24 0 3 0 3 6 129 298 170 15 0 0 0 0 0 0 0 0 0 0 0 0 0 0 0 0 0 0 0 0 0 0 0 0 0 0 0 0 0
0 339 330 145 57 10 0 6 1 19 141 361 307 1 0 0 0 0 0 0 0 0 0 0 0 0 0 0 0 0 0 0 0 0 0 0 0 0 0 0 0 0 0
17 458 445 356 337 174 107 24 3 34 125 206 231 0 0 0 0 0 0 0 0 0 0 0 0 0 0 0 0 0 0 0 0 0 0 0 0 0 0 0 0 0 0
272 513 485 412 476 323 162 86 169 127 129 53 67 0 0 0 0 0 0 0 0 0 0 0 0 0 0 0 0 0 0 0 0 0 0 0 0 0 0 0 0 0 0
109 520 502 372 300 324 289 130 114 146 84 7 0 0 0 0 0 0 0 0 0 0 0 0 0 0 0 0 0 0 0 0 0 0 0 0 0 0 0 0 0 0 0
106 456 440 346 321 315 269 193 60 4 1 1 2 0 0 0 0 0 0 0 0 0 0 0 0 0 0 0 0 0 0 0 0 0 0 0 0 0 0 0 0 0 0
1 447 368 320 236 212 159 142 136 54 0 0 0 0 0 0 0 0 0 0 0 0 0 0 0 0 0 0 0 0 0 0 0 0 0 0 0 0 0 0 0 0 0
47 308 162 79 147 151 139 119 58 0 0 0 0 0 0 0 0 0 0 0 0 0 0 0 0 0 0 0 0 0 0 0 0 0 0 0 0 0 0 0 0 0 0
193 157 54 0 0 0 20 21 12 0 0 2 4 1 0 0 0 0 0 0 0 0 0 0 0 0 0 0 0 0 0 0 0 0 0 0 0 0 0 0 0 0 0

GFSSE_con_mlcape_132.txt.gz
CAPE
0 605 1815 1566 1268 861 1638 894 239 133 384 437 598 293 35 1 0 2 12 248 393 372 441 538 544 541 485 511 514 439 396 163 253 202 199 232 186 280 274 232 204 153 100
0 690 1676 1653 1431 1048 1605 1189 379 150 243 607 795 645 60 5 2 1 1 2 84 185 426 448 484 494 469 394 374 389 204 83 99 110 96 171 155 179 247 188 169 271 172
0 910 1714 1646 1648 1288 1775 1351 489 169 238 713 799 629 107 6 3 2 6 2 73 211 316 393 433 416 373 322 296 133 4 2 4 8 12 49 145 255 161 183 178 185 235
85 1279 1900 1720 1666 1493 1540 1260 664 170 215 667 847 585 41 5 4 6 5 11 84 141 372 382 327 288 251 187 169 7 11 10 8 0 0 0 37 145 194 155 120 120 76
503 1507 1865 1897 1598 1292 1525 1235 849 268 168 315 836 413 49 5 5 6 6 13 129 172 316 193 185 113 98 142 47 14 10 0 0 0 0 0 11 71 82 47 45 69 38
875 1598 2071 1884 1610 1682 1620 1338 1066 438 196 164 557 468 193 5 5 4 7 8 105 91 186 134 89 108 51 47 45 43 34 8 0 0 2 3 0 11 16 36 38 40 46
987 1669 2110 1988 1652 1452 1619 1432 1220 635 333 275 964 656 252 4 9 5 8 9 46 11 110 106 111 56 69 47 50 54 21 6 0 0 0 5 21 12 5 21 22 33 49
619 1604 2112 1530 1345 1421 1637 1451 1336 931 510 332 907 615 300 2 9 6 7 10 10 16 39 37 30 19 55 62 49 25 6 0 0 0 9 22 31 36 30 20 20 30 33
1470 1758 1606 1256 1060 924 1392 1456 1334 1102 792 408 570 839 335 15 3 3 6 12 24 27 36 47 31 26 55 42 29 13 8 1 0 0 0 7 26 18 41 46 42 37 26
1817 975 709 476 436 316 509 997 1011 938 986 561 610 704 161 134 24 2 0 10 43 41 91 55 25 27 14 17 0 0 0 0 0 0 0 3 15 8 10 5 15 19 34
1460 758 247 142 19 1 6 67 781 836 780 914 799 632 176 86 29 1 0 1 41 26 50 36 29 19 0 0 0 0 0 0 0 0 3 6 8 6 6 6 7 8 8
937 646 285 88 114 13 0 0 0 427 583 404 557 467 148 58 11 0 0 0 45 28 50 35 11 0 0 0 0 0 0 0 0 0 7 9 6 7 4 5 5 4 4
758 766 415 193 13 0 0 0 0 0 267 214 429 325 154 0 1 0 0 0 20 13 25 3 0 0 0 0 0 0 0 0 0 2 10 8 8 7 3 3 1 1 0
365 542 381 23 0 0 0 0 0 22 241 184 370 330 120 0 0 0 0 0 0 2 0 0 0 0 0 0 0 0 0 0 0 0 7 7 3 2 3 1 0 0 0
24 138 121 0 0 0 0 5 1 8 145 201 323 282 121 13 0 0 0 0 0 0 0 0 0 0 0 0 0 0 0 0 0 0 1 3 2 2 1 1 0 0 0
0 1 0 0 0 17 0 23 29 28 197 160 291 266 136 12 0 0 0 0 0 0 0 0 0 0 0 0 0 0 0 0 0 0 0 2 2 1 1 0 0 0 0
0 0 0 0 41 0 3 0 0 35 135 92 238 250 127 0 0 0 0 0 0 0 0 0 0 0 0 0 0 0 0 0 0 0 0 0 0 0 0 0 0 0 0
0 0 22 51 71 9 18 3 0 0 23 138 170 203 91 0 0 0 0 0 0 0 0 0 0 0 0 0 0 0 0 0 0 0 0 0 0 0 0 0 0 0 0
0 0 52 122 212 48 20 0 0 8 90 179 131 165 70 0 0 0 0 0 0 0 0 0 0 0 0 0 0 0 0 0 0 0 0 0 0 0 0 0 0 0 0
0 32 201 236 221 39 12 7 0 0 33 121 115 128 50 0 0 0 0 0 0 0 0 0 0 0 0 0 0 0 0 0 0 0 0 0 0 0 0 0 0 0 0
0 419 584 494 254 130 10 0 0 0 44 101 121 16 0 0 0 0 0 0 0 0 0 0 0 0 0 0 0 0 0 0 0 0 0 0 0 0 0 0 0 0 0
0 495 689 605 380 287 94 13 8 1 82 30 8 0 0 0 0 0 0 0 0 0 0 0 0 0 0 0 0 0 0 0 0 0 0 0 0 0 0 0 0 0 0
0 414 590 561 504 398 226 52 15 1 3 2 1 1 0 0 0 0 0 0 0 0 0 0 0 0 0 0 0 0 0 0 0 0 0 0 0 0 0 0 0 0 0
0 274 400 336 284 230 263 116 53 35 18 1 1 0 0 0 0 0 0 0 0 0 0 0 0 0 0 0 0 0 0 0 0 0 0 0 0 0 0 0 0 0 0
42 88 69 106 112 73 192 138 62 2 0 1 0 0 0 0 0 0 0 0 0 0 0 0 0 0 0 0 0 0 0 0 0 0 0 0 0 0 0 0 0 0 0
47 23 8 6 6 67 86 40 5 0 0 0 0 0 0 0 0 0 0 0 0 0 0 0 0 0 0 0 0 0 0 0 0 0 0 0 0 0 0 0 0 0 0

GFSSE_con_mlcape_135.txt.gz
CAPE
24 559 1763 1158 1009 1486 803 367 254 118 5 7 3 6 0 0 28 387 630 654 636 667 729 675 694 652 596 543 449 250 200 142 218 249 194 214 226 271 289 253 83 109 202
117 886 1863 1380 1165 1402 1032 486 347 502 450 703 355 31 2 1 8 67 322 462 488 562 675 635 596 582 528 413 206 134 154 102 104 111 109 125 175 205 200 179 159 164 116
142 1067 1951 1504 1282 1525 1113 629 437 510 933 1004 643 74 5 2 3 7 36 312 410 514 525 521 550 423 385 279 118 9 4 1 0 0 43 65 116 202 160 97 63 70 88
335 1225 1950 1663 1317 1711 1256 798 539 429 1026 1110 774 101 7 4 3 6 5 247 263 470 457 413 453 413 380 115 82 11 2 0 0 0 12 16 22 82 116 131 83 4 5
681 1443 2106 1790 1413 1873 1469 923 617 465 1070 1103 687 101 7 6 6 5 121 186 386 349 331 297 208 251 208 24 58 1 0 0 0 0 5 18 30 65 64 47 64 39 8
1108 1859 2237 1845 1332 1430 1545 1202 693 490 744 1214 648 215 6 4 8 6 79 238 345 251 252 217 172 135 38 30 30 37 16 1 3 7 1 0 17 42 41 39 34 39 43
1201 1950 2275 1578 1412 1212 1606 1312 886 571 492 926 747 299 6 5 8 10 11 195 172 168 183 155 109 67 75 58 60 45 26 1 10 22 32 10 5 13 8 18 43 43 41
1338 1993 2222 1908 1534 1202 1425 1502 1103 687 553 823 760 506 121 3 9 4 13 12 9 127 91 53 67 71 66 64 40 17 5 20 37 29 25 35 44 26 18 3 15 13 26
1610 2095 1751 1777 1560 1165 1411 1546 1300 885 615 988 896 621 190 5 7 8 9 8 22 104 42 45 66 80 68 62 32 14 0 0 20 19 16 25 26 16 34 36 24 17 17
1536 1386 1194 1146 1040 979 1148 1025 1150 1086 755 736 980 721 190 3 7 3 5 45 12 63 57 28 62 67 58 44 29 0 0 0 0 0 8 16 7 9 3 10 15 11 18
1373 919 821 713 490 514 359 377 737 816 1033 595 896 554 122 52 4 1 5 81 107 65 43 27 12 46 15 8 1 0 0 0 0 0 4 9 11 6 5 6 4 3 3
1390 902 744 724 558 381 99 0 13 15 154 516 716 494 272 162 11 0 0 82 97 41 43 19 6 0 0 0 0 0 0 0 0 0 8 10 10 10 7 8 6 4 3
1227 1195 585 599 551 419 341 69 20 0 0 42 316 385 324 214 5 0 0 78 40 32 19 2 0 0 0 0 0 0 0 0 0 4 11 8 7 6 6 3 2 1 1
313 744 1114 717 308 27 50 4 36 43 7 0 104 291 267 231 21 0 0 2 2 1 0 0 0 0 0 0 0 0 0 0 3 6 9 7 6 5 2 1 0 0 0
3 187 663 885 363 0 5 0 0 0 0 76 24 248 236 182 26 0 0 0 0 0 0 0 0 0 0 0 0 0 1 2 3 4 8 6 6 4 1 1 0 0 0
0 0 62 320 248 0 0 17 48 74 23 3 64 164 256 195 16 0 0 0 0 0 0 0 0 0 0 0 0 0 0 0 1 4 5 4 4 3 1 0 0 0 0
0 0 0 58 63 130 264 171 88 2 134 41 66 101 184 150 3 0 0 0 0 0 0 0 0 0 0 0 0 0 0 0 0 0 0 2 0 0 0 0 0 0 0
0 0 0 80 174 251 156 32 47 4 1 77 170 118 132 82 0 0 0 0 0 0 0 0 0 0 0 0 0 0 0 0 0 0 0 0 0 0 0 0 0 0 0
0 0 0 106 226 253 97 10 24 15 0 52 97 68 59 25 0 0 0 0 0 0 0 0 0 0 0 0 0 0 0 0 0 0 0 0 0 0 0 0 0 0 0
0 0 0 82 325 347 161 42 12 3 0 47 15 92 42 28 0 0 0 0 0 0 0 0 0 0 0 0 0 0 0 0 0 0 0 0 0 0 0 0 0 0 0
0 0 259 175 368 408 84 0 0 0 0 106 1 36 33 14 0 0 0 0 0 0 0 0 0 0 0 0 0 0 0 0 0 0 0 0 0 0 0 0 0 0 0
0 53 588 386 424 442 99 47 1 0 56 27 4 4 17 0 0 0 0 0 0 0 0 0 0 0 0 0 0 0 0 0 0 0 0 0 0 0 0 0 0 0 0
0 202 624 632 488 488 226 83 10 2 1 1 0 0 0 0 0 0 0 0 0 0 0 0 0 0 0 0 0 0 0 0 0 0 0 0 0 0 0 0 0 0 0
129 327 488 516 634 593 431 160 67 14 9 0 4 0 0 0 0 0 0 0 0 0 0 0 0 0 0 0 0 0 0 0 0 0 0 0 0 0 0 0 0 0 0
21 43 66 189 148 194 342 158 117 39 0 3 1 0 0 0 0 0 0 0 0 0 0 0 0 0 0 0 0 0 0 0 0 0 0 0 0 0 0 0 0 0 0
30 11 1 42 119 127 123 82 78 24 1 1 0 0 0 0 1 0 0 0 0 0 0 0 0 0 0 0 0 0 0 0 0 0 0 0 0 0 0 0 0 0 0